CRL981 LFPO-FMMI

Flight info

Callsign CRL981
Flight time 9h 9m
Altitude 37000
Route PILUL2E/07 PILUL LUSAR NITAM PIDAD NEMIT POKAV LURON OLLEK ELIMO M732 DEGLI B21 ORNAT P568 EPLAS UM304 NAK UA727 NV UL445 GABSO UT913 KINAN UA401 TN TN1V
Aircraft B748/H-SDE3FGHIM1M2RWXY/LB1

Departure

Time 2026-04-25 12:43
Airport Paris-Orly Airport (LFPO)

Arrival

Time 2026-04-25 21:52
Airport Ivato International Airport (FMMI)
Time Latitude Longitude Altitude Speed Heading
2026-04-25 12:14 48.72861 2.37555 305 ft 0 kts 343°
2026-04-25 12:29 48.72858 2.37556 304 ft 3 kts 343°
2026-04-25 12:29 48.72840 2.37564 305 ft 3 kts 343°
2026-04-25 12:30 48.72822 2.37572 304 ft 3 kts 338°
2026-04-25 12:30 48.72803 2.37589 305 ft 3 kts 295°
2026-04-25 12:30 48.72798 2.37618 302 ft 1 kts 259°
2026-04-25 12:30 48.72798 2.37619 302 ft 0 kts 259°
2026-04-25 12:36 48.72798 2.37617 302 ft 1 kts 259°
2026-04-25 12:36 48.72795 2.37606 302 ft 2 kts 246°
2026-04-25 12:36 48.72784 2.37568 305 ft 6 kts 246°
2026-04-25 12:36 48.72761 2.37494 305 ft 10 kts 245°
2026-04-25 12:37 48.72731 2.37386 307 ft 11 kts 252°
2026-04-25 12:37 48.72709 2.37272 307 ft 12 kts 251°
2026-04-25 12:37 48.72661 2.37185 307 ft 9 kts 197°
2026-04-25 12:37 48.72605 2.37138 307 ft 9 kts 227°
2026-04-25 12:38 48.72574 2.37046 307 ft 10 kts 251°
2026-04-25 12:38 48.72553 2.36935 305 ft 12 kts 253°
2026-04-25 12:38 48.72525 2.36792 305 ft 16 kts 254°
2026-04-25 12:38 48.72491 2.36612 306 ft 19 kts 254°
2026-04-25 12:39 48.72452 2.36401 304 ft 21 kts 254°
2026-04-25 12:39 48.72414 2.36197 306 ft 20 kts 254°
2026-04-25 12:39 48.72378 2.35998 305 ft 18 kts 255°
2026-04-25 12:39 48.72346 2.35824 305 ft 16 kts 255°
2026-04-25 12:40 48.72317 2.35678 304 ft 12 kts 243°
2026-04-25 12:40 48.72265 2.35619 304 ft 7 kts 200°
2026-04-25 12:40 48.72231 2.35612 304 ft 5 kts 183°
2026-04-25 12:40 48.72176 2.35623 303 ft 11 kts 165°
2026-04-25 12:41 48.72092 2.35671 305 ft 12 kts 147°
2026-04-25 12:41 48.72045 2.35743 307 ft 9 kts 131°
2026-04-25 12:41 48.71995 2.35858 304 ft 16 kts 116°
2026-04-25 12:41 48.71973 2.35985 306 ft 7 kts 87°
2026-04-25 12:42 48.72010 2.36221 305 ft 52 kts 75°
2026-04-25 12:42 48.72104 2.36728 307 ft 95 kts 74°
2026-04-25 12:42 48.72436 2.38509 310 ft 167 kts 74°
2026-04-25 12:42 48.72779 2.40356 446 ft 187 kts 74°
2026-04-25 12:43 48.73119 2.42225 834 ft 186 kts 74°
2026-04-25 12:43 48.73483 2.44177 1062 ft 199 kts 72°
2026-04-25 12:43 48.74177 2.48524 1447 ft 224 kts 86°
2026-04-25 12:44 48.74178 2.50874 1926 ft 221 kts 91°
2026-04-25 12:44 48.74090 2.53256 2113 ft 234 kts 91°
2026-04-25 12:44 48.73638 2.58223 2572 ft 258 kts 120°
2026-04-25 12:45 48.72363 2.60201 2904 ft 268 kts 152°
2026-04-25 12:45 48.70581 2.61006 3328 ft 269 kts 173°
2026-04-25 12:45 48.67058 2.62055 4437 ft 259 kts 161°
2026-04-25 12:46 48.65373 2.63089 4590 ft 270 kts 154°
2026-04-25 12:46 48.63637 2.64296 4939 ft 279 kts 155°
2026-04-25 12:46 48.61804 2.65340 5400 ft 286 kts 162°
2026-04-25 12:46 48.59901 2.66212 6174 ft 277 kts 163°
2026-04-25 12:47 48.58084 2.67106 6647 ft 284 kts 160°
2026-04-25 12:47 48.56198 2.68173 6959 ft 293 kts 160°
2026-04-25 12:47 48.54280 2.69281 7409 ft 295 kts 158°
2026-04-25 12:47 48.52337 2.70286 7932 ft 296 kts 165°
2026-04-25 12:48 48.50333 2.71089 8405 ft 298 kts 165°
2026-04-25 12:48 48.48337 2.71973 8882 ft 300 kts 161°
2026-04-25 12:48 48.46367 2.73020 9357 ft 301 kts 160°
2026-04-25 12:48 48.44383 2.74079 9813 ft 303 kts 161°
2026-04-25 12:49 48.42382 2.75086 10239 ft 304 kts 162°
2026-04-25 12:49 48.40379 2.76083 10583 ft 309 kts 162°
2026-04-25 12:49 48.38310 2.77129 10823 ft 319 kts 161°
2026-04-25 12:49 48.36164 2.78223 11023 ft 332 kts 161°
2026-04-25 12:50 48.33930 2.79354 11183 ft 346 kts 162°
2026-04-25 12:50 48.31591 2.80531 11334 ft 363 kts 162°
2026-04-25 12:50 48.29149 2.81764 11668 ft 374 kts 161°
2026-04-25 12:50 48.26778 2.83422 12124 ft 381 kts 146°
2026-04-25 12:51 48.24617 2.85783 12637 ft 387 kts 141°
2026-04-25 12:51 48.22564 2.88367 13157 ft 392 kts 140°
2026-04-25 12:51 48.20438 2.90941 13679 ft 397 kts 143°
2026-04-25 12:51 48.18206 2.93442 14171 ft 402 kts 144°
2026-04-25 12:52 48.15957 2.95970 14698 ft 406 kts 143°
2026-04-25 12:52 48.13717 2.98584 15216 ft 410 kts 142°
2026-04-25 12:52 48.11465 3.01219 15708 ft 414 kts 142°
2026-04-25 12:52 48.09170 3.03855 16195 ft 418 kts 142°
2026-04-25 12:53 48.07012 3.06785 16694 ft 421 kts 135°
2026-04-25 12:53 48.04981 3.09977 17186 ft 425 kts 133°
2026-04-25 12:53 48.02972 3.13244 17664 ft 429 kts 133°
2026-04-25 12:53 48.00906 3.16491 18160 ft 433 kts 135°
2026-04-25 12:54 47.98794 3.19729 18616 ft 436 kts 135°
2026-04-25 12:54 47.96685 3.23000 19010 ft 440 kts 134°
2026-04-25 12:54 47.94573 3.26321 19433 ft 443 kts 134°
2026-04-25 12:54 47.92436 3.29662 19868 ft 445 kts 134°
2026-04-25 12:55 47.90311 3.32952 20278 ft 448 kts 135°
2026-04-25 12:55 47.88851 3.35209 20552 ft 450 kts 134°
2026-04-25 12:55 47.85965 3.39687 21072 ft 454 kts 134°
2026-04-25 12:55 47.83745 3.43133 21445 ft 457 kts 134°
2026-04-25 12:56 47.81565 3.46501 21813 ft 460 kts 134°
2026-04-25 12:56 47.79338 3.49937 22174 ft 462 kts 134°
2026-04-25 12:56 47.77093 3.53398 22559 ft 465 kts 134°
2026-04-25 12:56 47.74839 3.56872 22913 ft 468 kts 134°
2026-04-25 12:57 47.72573 3.60358 23265 ft 470 kts 134°
2026-04-25 12:57 47.70301 3.63847 23627 ft 472 kts 134°
2026-04-25 12:57 47.68003 3.67370 23930 ft 475 kts 134°
2026-04-25 12:57 47.65708 3.70887 24208 ft 477 kts 134°
2026-04-25 12:58 47.63391 3.74432 24506 ft 479 kts 135°
2026-04-25 12:58 47.61069 3.77979 24786 ft 481 kts 135°
2026-04-25 12:58 47.58728 3.81550 25057 ft 483 kts 135°
2026-04-25 12:58 47.56385 3.85120 25310 ft 484 kts 135°
2026-04-25 12:59 47.54027 3.88708 25597 ft 486 kts 135°
2026-04-25 12:59 47.51666 3.92296 25866 ft 488 kts 135°
2026-04-25 12:59 47.49287 3.95905 26146 ft 489 kts 135°
2026-04-25 12:59 47.46939 3.99463 26417 ft 491 kts 135°
2026-04-25 13:00 47.44522 4.03120 26688 ft 492 kts 135°
2026-04-25 13:00 47.43749 4.04288 26794 ft 493 kts 135°
2026-04-25 13:00 47.39747 4.10329 27212 ft 495 kts 135°
2026-04-25 13:00 47.37330 4.13972 27481 ft 497 kts 135°
2026-04-25 13:01 47.34908 4.17617 27714 ft 499 kts 135°
2026-04-25 13:01 47.32471 4.21279 27958 ft 501 kts 135°
2026-04-25 13:01 47.30026 4.24948 28197 ft 503 kts 135°
2026-04-25 13:01 47.27574 4.28622 28453 ft 504 kts 135°
2026-04-25 13:02 47.25106 4.32314 28721 ft 506 kts 135°
2026-04-25 13:02 47.22633 4.36010 28964 ft 507 kts 135°
2026-04-25 13:02 47.20151 4.39713 29212 ft 509 kts 135°
2026-04-25 13:02 47.17660 4.43424 29465 ft 510 kts 135°
2026-04-25 13:03 47.15168 4.47133 29711 ft 512 kts 135°
2026-04-25 13:03 47.12657 4.50863 29951 ft 513 kts 135°
2026-04-25 13:03 47.10132 4.54609 30202 ft 515 kts 135°
2026-04-25 13:03 47.07611 4.58344 30378 ft 517 kts 135°
2026-04-25 13:04 47.05083 4.62083 30685 ft 516 kts 135°
2026-04-25 13:04 47.02554 4.65819 30970 ft 515 kts 135°
2026-04-25 13:04 47.00030 4.69544 31232 ft 515 kts 135°
2026-04-25 13:04 46.97506 4.73261 31461 ft 515 kts 135°
2026-04-25 13:05 46.94977 4.76981 31672 ft 515 kts 136°
2026-04-25 13:05 46.92481 4.80647 31889 ft 514 kts 136°
2026-04-25 13:05 46.89957 4.84350 32116 ft 514 kts 136°
2026-04-25 13:05 46.87429 4.88053 32322 ft 514 kts 136°
2026-04-25 13:06 46.84901 4.91750 32530 ft 514 kts 136°
2026-04-25 13:06 46.82376 4.95439 32716 ft 514 kts 136°
2026-04-25 13:06 46.79844 4.99131 32868 ft 514 kts 136°
2026-04-25 13:06 46.77305 5.02829 33080 ft 514 kts 136°
2026-04-25 13:07 46.74765 5.06523 33253 ft 514 kts 136°
2026-04-25 13:07 46.72234 5.10200 33421 ft 515 kts 136°
2026-04-25 13:07 46.69694 5.13884 33585 ft 515 kts 136°
2026-04-25 13:07 46.67153 5.17561 33752 ft 515 kts 138°
2026-04-25 13:08 46.62099 5.24223 33999 ft 514 kts 139°
2026-04-25 13:08 46.59455 5.27723 34156 ft 514 kts 139°
2026-04-25 13:08 46.56833 5.31167 34247 ft 515 kts 140°
2026-04-25 13:09 46.54164 5.34644 34349 ft 515 kts 140°
2026-04-25 13:09 46.51498 5.38121 34458 ft 515 kts 139°
2026-04-25 13:09 46.48841 5.41598 34561 ft 516 kts 139°
2026-04-25 13:09 46.46174 5.45082 34644 ft 516 kts 140°
2026-04-25 13:10 46.40827 5.52028 34835 ft 516 kts 139°
2026-04-25 13:10 46.38152 5.55502 34949 ft 516 kts 139°
2026-04-25 13:10 46.35475 5.58976 35063 ft 516 kts 140°
2026-04-25 13:11 46.30119 5.65902 35232 ft 517 kts 140°
2026-04-25 13:11 46.24753 5.72826 35389 ft 518 kts 140°
2026-04-25 13:12 46.19371 5.79751 35565 ft 518 kts 140°
2026-04-25 13:12 46.15799 5.84337 35665 ft 519 kts 140°
2026-04-25 13:13 46.11314 5.90083 35784 ft 519 kts 140°
2026-04-25 13:13 46.08575 5.93585 35836 ft 519 kts 140°
2026-04-25 13:13 46.03188 6.00460 35898 ft 521 kts 140°
2026-04-25 13:14 45.98645 6.06243 35970 ft 521 kts 140°
2026-04-25 13:14 45.92314 6.14280 36079 ft 522 kts 140°
2026-04-25 13:15 45.87784 6.20015 36183 ft 523 kts 140°
2026-04-25 13:15 45.82320 6.26917 36279 ft 524 kts 140°
2026-04-25 13:16 45.76837 6.33821 36372 ft 525 kts 140°
2026-04-25 13:16 45.71335 6.40733 36453 ft 526 kts 140°
2026-04-25 13:17 45.65823 6.47636 36541 ft 527 kts 140°
2026-04-25 13:17 45.60297 6.54539 36585 ft 529 kts 140°
2026-04-25 13:18 45.54771 6.61424 36655 ft 528 kts 140°
2026-04-25 13:18 45.49201 6.68344 36728 ft 529 kts 140°
2026-04-25 13:19 45.43680 6.75185 36778 ft 530 kts 140°
2026-04-25 13:19 45.39034 6.80928 36803 ft 522 kts 140°
2026-04-25 13:20 45.35452 6.85348 36796 ft 505 kts 141°
2026-04-25 13:20 45.32824 6.88585 36786 ft 494 kts 141°
2026-04-25 13:20 45.27644 6.94949 36787 ft 492 kts 141°
2026-04-25 13:21 45.22473 7.01291 36777 ft 492 kts 141°
2026-04-25 13:21 45.17285 7.07637 36773 ft 493 kts 141°
2026-04-25 13:22 45.12096 7.13968 36768 ft 492 kts 141°
2026-04-25 13:23 45.04065 7.22877 36770 ft 490 kts 144°
2026-04-25 13:23 44.98657 7.28742 36746 ft 489 kts 144°
2026-04-25 13:24 44.93254 7.34568 36733 ft 488 kts 144°
2026-04-25 13:24 44.87858 7.40388 36732 ft 488 kts 144°
2026-04-25 13:25 44.82455 7.46189 36731 ft 488 kts 144°
2026-04-25 13:25 44.77056 7.51981 36738 ft 487 kts 144°
2026-04-25 13:26 44.71660 7.57750 36745 ft 487 kts 144°
2026-04-25 13:26 44.66267 7.63506 36758 ft 486 kts 144°
2026-04-25 13:27 44.60908 7.69209 36756 ft 486 kts 144°
2026-04-25 13:27 44.55475 7.74978 36755 ft 486 kts 144°
2026-04-25 13:28 44.50117 7.80654 36753 ft 486 kts 144°
2026-04-25 13:28 44.44725 7.86353 36748 ft 486 kts 144°
2026-04-25 13:29 44.39322 7.92049 36752 ft 486 kts 144°
2026-04-25 13:29 44.33923 7.97728 36748 ft 485 kts 145°
2026-04-25 13:30 44.25820 8.06226 36786 ft 485 kts 145°
2026-04-25 13:31 44.18044 8.14353 36801 ft 485 kts 145°
2026-04-25 13:31 44.12643 8.19981 36793 ft 485 kts 145°
2026-04-25 13:32 44.07235 8.25604 36802 ft 485 kts 145°
2026-04-25 13:32 44.01826 8.31215 36803 ft 485 kts 145°
2026-04-25 13:33 43.96414 8.36815 36801 ft 485 kts 145°
2026-04-25 13:33 43.91000 8.42404 36797 ft 485 kts 145°
2026-04-25 13:34 43.85581 8.47987 36797 ft 486 kts 145°
2026-04-25 13:34 43.80150 8.53567 36799 ft 486 kts 145°
2026-04-25 13:35 43.74712 8.59144 36798 ft 487 kts 145°
2026-04-25 13:35 43.69301 8.64678 36794 ft 487 kts 145°
2026-04-25 13:36 43.64063 8.70024 36797 ft 486 kts 145°
2026-04-25 13:36 43.59015 8.76046 36795 ft 486 kts 138°
2026-04-25 13:37 43.54061 8.82332 36805 ft 485 kts 139°
2026-04-25 13:37 43.49048 8.88557 36801 ft 486 kts 139°
2026-04-25 13:38 43.44056 8.94818 36809 ft 485 kts 139°
2026-04-25 13:38 43.39047 9.01041 36807 ft 484 kts 139°
2026-04-25 13:39 43.34528 9.06663 36811 ft 484 kts 139°
2026-04-25 13:39 43.29522 9.12868 36822 ft 484 kts 139°
2026-04-25 13:40 43.24527 9.19048 36820 ft 483 kts 139°
2026-04-25 13:40 43.19530 9.25216 36821 ft 483 kts 139°
2026-04-25 13:41 43.14538 9.31362 36825 ft 482 kts 139°
2026-04-25 13:41 43.09575 9.37460 36825 ft 482 kts 139°
2026-04-25 13:42 43.04578 9.43585 36829 ft 482 kts 139°
2026-04-25 13:42 42.99585 9.49692 36823 ft 480 kts 139°
2026-04-25 13:43 42.94603 9.55770 36821 ft 480 kts 139°
2026-04-25 13:43 42.89613 9.61847 36824 ft 480 kts 139°
2026-04-25 13:44 42.84621 9.67911 36817 ft 481 kts 139°
2026-04-25 13:44 42.79628 9.73961 36818 ft 480 kts 138°
2026-04-25 13:45 42.74629 9.80006 36818 ft 480 kts 139°
2026-04-25 13:45 42.69638 9.86028 36811 ft 478 kts 139°
2026-04-25 13:46 42.64654 9.92029 36812 ft 478 kts 139°
2026-04-25 13:46 42.59906 9.97732 36812 ft 478 kts 139°
2026-04-25 13:47 42.54918 10.03711 36812 ft 477 kts 138°
2026-04-25 13:47 42.49942 10.09662 36810 ft 477 kts 138°
2026-04-25 13:48 42.44966 10.15600 36808 ft 477 kts 138°
2026-04-25 13:48 42.39977 10.21540 36813 ft 476 kts 138°
2026-04-25 13:49 42.34786 10.27064 36866 ft 474 kts 149°
2026-04-25 13:49 42.29060 10.31430 36817 ft 475 kts 150°
2026-04-25 13:50 42.23324 10.35841 36828 ft 475 kts 150°
2026-04-25 13:50 42.17576 10.40240 36829 ft 475 kts 150°
2026-04-25 13:51 42.11835 10.44622 36822 ft 475 kts 150°
2026-04-25 13:51 42.06085 10.49009 36825 ft 475 kts 150°
2026-04-25 13:52 42.00326 10.53385 36825 ft 475 kts 150°
2026-04-25 13:52 41.94579 10.57750 36833 ft 475 kts 150°
2026-04-25 13:53 41.88822 10.62109 36821 ft 474 kts 150°
2026-04-25 13:53 41.83314 10.66272 36822 ft 474 kts 150°
2026-04-25 13:54 41.77563 10.70610 36821 ft 475 kts 150°
2026-04-25 13:54 41.71801 10.74948 36823 ft 475 kts 150°
2026-04-25 13:55 41.66031 10.79282 36826 ft 475 kts 150°
2026-04-25 13:55 41.60261 10.83608 36829 ft 476 kts 150°
2026-04-25 13:56 41.54519 10.87904 36825 ft 477 kts 150°
2026-04-25 13:56 41.48727 10.92228 36826 ft 477 kts 150°
2026-04-25 13:57 41.42926 10.96549 36822 ft 478 kts 150°
2026-04-25 13:57 41.37116 11.00869 36826 ft 478 kts 150°
2026-04-25 13:58 41.31494 11.05040 36826 ft 477 kts 150°
2026-04-25 13:58 41.25690 11.09338 36826 ft 477 kts 150°
2026-04-25 13:59 41.19884 11.13628 36823 ft 478 kts 150°
2026-04-25 13:59 41.14060 11.17923 36829 ft 479 kts 150°
2026-04-25 14:00 41.08229 11.22214 36834 ft 480 kts 150°
2026-04-25 14:00 41.02381 11.26509 36835 ft 480 kts 150°
2026-04-25 14:01 40.96538 11.30791 36829 ft 480 kts 150°
2026-04-25 14:01 40.90702 11.35059 36835 ft 479 kts 150°
2026-04-25 14:02 40.84905 11.39292 36819 ft 479 kts 150°
2026-04-25 14:02 40.79351 11.44095 36821 ft 478 kts 144°
2026-04-25 14:03 40.74032 11.48895 36835 ft 478 kts 146°
2026-04-25 14:03 40.68505 11.53806 36824 ft 479 kts 145°
2026-04-25 14:04 40.62995 11.58737 36829 ft 479 kts 145°
2026-04-25 14:04 40.58395 11.62820 36829 ft 479 kts 145°
2026-04-25 14:05 40.52879 11.67726 36834 ft 478 kts 145°
2026-04-25 14:05 40.47361 11.72615 36823 ft 478 kts 146°
2026-04-25 14:06 40.41852 11.77491 36819 ft 477 kts 145°
2026-04-25 14:06 40.36348 11.82351 36822 ft 476 kts 145°
2026-04-25 14:07 40.30848 11.87197 36822 ft 477 kts 145°
2026-04-25 14:07 40.25337 11.92045 36818 ft 478 kts 146°
2026-04-25 14:08 40.19809 11.96896 36819 ft 478 kts 146°
2026-04-25 14:08 40.14266 12.01752 36820 ft 479 kts 146°
2026-04-25 14:09 40.08729 12.06592 36826 ft 478 kts 146°
2026-04-25 14:09 40.03206 12.11412 36816 ft 476 kts 146°
2026-04-25 14:10 39.97695 12.16210 36815 ft 476 kts 146°
2026-04-25 14:10 39.92216 12.20972 36817 ft 477 kts 146°
2026-04-25 14:11 39.86704 12.25753 36822 ft 476 kts 146°
2026-04-25 14:11 39.81189 12.30527 36823 ft 477 kts 146°
2026-04-25 14:12 39.75646 12.35316 36820 ft 478 kts 146°
2026-04-25 14:12 39.70103 12.40095 36826 ft 479 kts 146°
2026-04-25 14:13 39.64580 12.44848 36825 ft 475 kts 146°
2026-04-25 14:13 39.59067 12.49583 36826 ft 475 kts 146°
2026-04-25 14:14 39.53554 12.54310 36817 ft 475 kts 146°
2026-04-25 14:14 39.48039 12.59028 36824 ft 475 kts 146°
2026-04-25 14:15 39.42691 12.63595 36829 ft 476 kts 146°
2026-04-25 14:15 39.37156 12.68312 36831 ft 477 kts 146°
2026-04-25 14:16 39.31596 12.73043 36829 ft 478 kts 146°
2026-04-25 14:16 39.26065 12.77738 36836 ft 479 kts 146°
2026-04-25 14:17 39.20496 12.82458 36834 ft 478 kts 146°
2026-04-25 14:17 39.16776 12.85605 36833 ft 478 kts 146°
2026-04-25 14:18 39.09371 12.91858 36833 ft 478 kts 146°
2026-04-25 14:18 39.03805 12.96548 36829 ft 479 kts 146°
2026-04-25 14:19 38.98224 13.01241 36830 ft 480 kts 146°
2026-04-25 14:19 38.92620 13.05945 36834 ft 481 kts 147°
2026-04-25 14:20 38.87009 13.10645 36834 ft 482 kts 147°
2026-04-25 14:20 38.81096 13.14712 36824 ft 482 kts 153°
2026-04-25 14:21 38.75087 13.18530 36833 ft 483 kts 153°
2026-04-25 14:21 38.69134 13.22399 36832 ft 483 kts 153°
2026-04-25 14:22 38.63122 13.26237 36835 ft 483 kts 153°
2026-04-25 14:22 38.57106 13.30109 36829 ft 483 kts 153°
2026-04-25 14:23 38.51091 13.33951 36827 ft 484 kts 153°
2026-04-25 14:23 38.45073 13.37799 36829 ft 485 kts 153°
2026-04-25 14:24 38.39031 13.41649 36831 ft 485 kts 153°
2026-04-25 14:24 38.32981 13.45500 36824 ft 486 kts 153°
2026-04-25 14:25 38.26956 13.49325 36812 ft 487 kts 153°
2026-04-25 14:25 38.20888 13.53174 36830 ft 487 kts 153°
2026-04-25 14:26 38.14811 13.57019 36826 ft 488 kts 153°
2026-04-25 14:26 38.08738 13.60854 36812 ft 487 kts 153°
2026-04-25 14:27 38.02664 13.64683 36808 ft 488 kts 154°
2026-04-25 14:27 37.96582 13.68510 36806 ft 487 kts 153°
2026-04-25 14:28 37.90502 13.72330 36803 ft 487 kts 154°
2026-04-25 14:28 37.84416 13.76145 36805 ft 487 kts 154°
2026-04-25 14:29 37.78339 13.79947 36804 ft 488 kts 154°
2026-04-25 14:29 37.72241 13.83757 36807 ft 490 kts 154°
2026-04-25 14:30 37.66114 13.87576 36800 ft 490 kts 153°
2026-04-25 14:30 37.56961 13.93270 36802 ft 492 kts 153°
2026-04-25 14:31 37.51013 13.96961 36794 ft 492 kts 153°
2026-04-25 14:31 37.44879 14.00761 36794 ft 491 kts 153°
2026-04-25 14:32 37.38742 14.04556 36799 ft 491 kts 153°
2026-04-25 14:32 37.32613 14.08340 36780 ft 491 kts 154°
2026-04-25 14:33 37.26462 14.12128 36781 ft 492 kts 154°
2026-04-25 14:33 37.20349 14.15887 36796 ft 493 kts 154°
2026-04-25 14:34 37.14181 14.19674 36799 ft 494 kts 154°
2026-04-25 14:34 37.07988 14.23468 36791 ft 495 kts 154°
2026-04-25 14:35 37.01792 14.27258 36800 ft 496 kts 154°
2026-04-25 14:35 36.95606 14.31034 36807 ft 495 kts 154°
2026-04-25 14:36 36.89423 14.34802 36802 ft 495 kts 154°
2026-04-25 14:36 36.83222 14.38574 36795 ft 495 kts 154°
2026-04-25 14:37 36.77022 14.42338 36814 ft 496 kts 154°
2026-04-25 14:37 36.70847 14.46081 36821 ft 496 kts 154°
2026-04-25 14:38 36.64585 14.49869 36814 ft 498 kts 154°
2026-04-25 14:38 36.58382 14.53615 36819 ft 499 kts 154°
2026-04-25 14:39 36.52124 14.57387 36810 ft 500 kts 155°
2026-04-25 14:39 36.46174 14.61868 36803 ft 502 kts 145°
2026-04-25 14:40 36.40619 14.66666 36817 ft 503 kts 146°
2026-04-25 14:40 36.34824 14.71526 36820 ft 503 kts 146°
2026-04-25 14:41 36.29053 14.76436 36812 ft 504 kts 146°
2026-04-25 14:41 36.23232 14.81335 36818 ft 505 kts 146°
2026-04-25 14:42 36.19383 14.84582 36823 ft 506 kts 146°
2026-04-25 14:42 36.11583 14.91147 36823 ft 507 kts 146°
2026-04-25 14:43 36.05773 14.96026 36819 ft 508 kts 146°
2026-04-25 14:43 35.99916 15.00935 36816 ft 509 kts 146°
2026-04-25 14:44 35.94049 15.05843 36816 ft 509 kts 146°
2026-04-25 14:44 35.88179 15.10745 36818 ft 509 kts 146°
2026-04-25 14:45 35.82297 15.15648 36819 ft 510 kts 146°
2026-04-25 14:45 35.76428 15.20531 36818 ft 510 kts 146°
2026-04-25 14:46 35.70555 15.25408 36811 ft 512 kts 146°
2026-04-25 14:46 35.64643 15.30309 36807 ft 513 kts 146°
2026-04-25 14:47 35.60677 15.33592 36805 ft 513 kts 146°
2026-04-25 14:47 35.52789 15.40110 36830 ft 513 kts 146°
2026-04-25 14:48 35.46861 15.44997 36820 ft 514 kts 147°
2026-04-25 14:48 35.40909 15.49896 36825 ft 516 kts 147°
2026-04-25 14:49 35.35939 15.53979 36828 ft 518 kts 147°
2026-04-25 14:49 35.29950 15.58892 36830 ft 518 kts 147°
2026-04-25 14:50 35.23954 15.63801 36829 ft 517 kts 147°
2026-04-25 14:50 35.17960 15.68701 36811 ft 520 kts 147°
2026-04-25 14:51 35.11928 15.73622 36840 ft 522 kts 147°
2026-04-25 14:51 35.05915 15.78519 36814 ft 523 kts 147°
2026-04-25 14:52 34.99823 15.83471 36809 ft 523 kts 147°
2026-04-25 14:52 34.94791 15.87555 36813 ft 522 kts 147°
2026-04-25 14:53 34.87754 15.93255 36815 ft 523 kts 147°
2026-04-25 14:53 34.81679 15.98167 36815 ft 524 kts 147°
2026-04-25 14:54 34.75605 16.03068 36824 ft 524 kts 147°
2026-04-25 14:54 34.69525 16.07967 36817 ft 524 kts 147°
2026-04-25 14:55 34.63450 16.12852 36816 ft 525 kts 147°
2026-04-25 14:55 34.57345 16.17753 36818 ft 525 kts 147°
2026-04-25 14:56 34.51282 16.22612 36818 ft 527 kts 147°
2026-04-25 14:56 34.45157 16.27511 36823 ft 527 kts 147°
2026-04-25 14:57 34.39032 16.32402 36815 ft 526 kts 147°
2026-04-25 14:57 34.32992 16.37445 36849 ft 528 kts 137°
2026-04-25 14:58 34.27783 16.43733 36821 ft 529 kts 134°
2026-04-25 14:58 34.22622 16.50093 36823 ft 530 kts 135°
2026-04-25 14:59 34.17429 16.56403 36830 ft 530 kts 134°
2026-04-25 14:59 34.12248 16.62754 36827 ft 530 kts 135°
2026-04-25 15:00 34.07078 16.69028 36815 ft 532 kts 135°
2026-04-25 15:00 34.01866 16.75378 36825 ft 533 kts 135°
2026-04-25 15:01 33.96649 16.81703 36830 ft 532 kts 135°
2026-04-25 15:01 33.91424 16.88055 36825 ft 533 kts 135°
2026-04-25 15:02 33.86193 16.94385 36821 ft 532 kts 135°
2026-04-25 15:02 33.80968 17.00706 36819 ft 532 kts 135°
2026-04-25 15:03 33.75769 17.06978 36820 ft 534 kts 135°
2026-04-25 15:03 33.70523 17.13299 36821 ft 535 kts 135°
2026-04-25 15:04 33.65255 17.19633 36817 ft 536 kts 135°
2026-04-25 15:04 33.59980 17.25965 36819 ft 536 kts 135°
2026-04-25 15:05 33.54703 17.32287 36819 ft 536 kts 135°
2026-04-25 15:06 33.46776 17.41763 36818 ft 537 kts 136°
2026-04-25 15:06 33.41513 17.48037 36810 ft 537 kts 136°
2026-04-25 15:07 33.36223 17.54336 36806 ft 537 kts 136°
2026-04-25 15:07 33.30915 17.60642 36809 ft 537 kts 136°
2026-04-25 15:08 33.25618 17.66925 36806 ft 537 kts 136°
2026-04-25 15:08 33.20049 17.72827 36852 ft 534 kts 151°
2026-04-25 15:09 33.13583 17.77188 36815 ft 534 kts 154°
2026-04-25 15:09 33.03858 17.83690 36816 ft 534 kts 153°
2026-04-25 15:10 32.97356 17.87989 36812 ft 534 kts 153°
2026-04-25 15:11 32.87779 17.94369 36800 ft 535 kts 154°
2026-04-25 15:11 32.81265 17.98676 36804 ft 536 kts 154°
2026-04-25 15:12 32.71499 18.05142 36801 ft 535 kts 154°
2026-04-25 15:12 32.67181 18.07991 36805 ft 535 kts 154°
2026-04-25 15:13 32.55084 18.15493 36806 ft 536 kts 156°
2026-04-25 15:14 32.48454 18.19526 36806 ft 535 kts 156°
2026-04-25 15:14 32.41852 18.23603 36805 ft 535 kts 156°
2026-04-25 15:15 32.35233 18.27642 36805 ft 536 kts 156°
2026-04-25 15:15 32.28618 18.31696 36791 ft 535 kts 156°
2026-04-25 15:16 32.21993 18.35735 36793 ft 535 kts 156°
2026-04-25 15:16 32.12176 18.41956 36810 ft 538 kts 153°
2026-04-25 15:17 32.02500 18.48628 36804 ft 537 kts 153°
2026-04-25 15:18 31.96044 18.53085 36799 ft 538 kts 153°
2026-04-25 15:18 31.86351 18.59747 36805 ft 537 kts 153°
2026-04-25 15:19 31.82032 18.62714 36802 ft 537 kts 153°
2026-04-25 15:19 31.73447 18.68596 36799 ft 536 kts 154°
2026-04-25 15:20 31.66989 18.73013 36802 ft 537 kts 154°
2026-04-25 15:20 31.60533 18.77422 36805 ft 537 kts 154°
2026-04-25 15:21 31.54081 18.81822 36787 ft 535 kts 154°
2026-04-25 15:21 31.47682 18.86177 36781 ft 536 kts 154°
2026-04-25 15:22 31.41231 18.90563 36797 ft 537 kts 155°
2026-04-25 15:22 31.34769 18.94947 36800 ft 536 kts 155°
2026-04-25 15:23 31.28305 18.99327 36796 ft 536 kts 155°
2026-04-25 15:23 31.21845 19.03696 36795 ft 536 kts 155°
2026-04-25 15:24 31.15382 19.08062 36768 ft 536 kts 155°
2026-04-25 15:24 31.11095 19.10951 36800 ft 538 kts 155°
2026-04-25 15:25 31.02471 19.16761 36787 ft 538 kts 155°
2026-04-25 15:25 30.95978 19.21123 36789 ft 538 kts 156°
2026-04-25 15:26 30.89490 19.25478 36792 ft 538 kts 156°
2026-04-25 15:26 30.82987 19.29834 36791 ft 540 kts 156°
2026-04-25 15:27 30.76465 19.34197 36795 ft 540 kts 156°
2026-04-25 15:28 30.66686 19.40725 36792 ft 541 kts 156°
2026-04-25 15:28 30.60154 19.45078 36791 ft 541 kts 156°
2026-04-25 15:29 30.53637 19.49416 36792 ft 539 kts 157°
2026-04-25 15:29 30.47221 19.53674 36786 ft 539 kts 157°
2026-04-25 15:30 30.40716 19.57990 36778 ft 538 kts 158°
2026-04-25 15:30 30.34142 19.62135 36779 ft 537 kts 159°
2026-04-25 15:31 30.27579 19.66316 36737 ft 538 kts 158°
2026-04-25 15:31 30.21018 19.70480 36778 ft 538 kts 159°
2026-04-25 15:32 30.14443 19.74638 36778 ft 539 kts 158°
2026-04-25 15:32 30.07874 19.78801 36777 ft 539 kts 159°
2026-04-25 15:33 29.98023 19.85018 36752 ft 538 kts 159°
2026-04-25 15:33 29.91442 19.89161 36786 ft 539 kts 159°
2026-04-25 15:34 29.84904 19.93277 36757 ft 539 kts 159°
2026-04-25 15:34 29.80493 19.96049 36754 ft 538 kts 159°
2026-04-25 15:35 29.68433 20.03612 36756 ft 539 kts 159°
2026-04-25 15:36 29.58544 20.09797 36754 ft 540 kts 159°
2026-04-25 15:36 29.51945 20.13919 36748 ft 540 kts 160°
2026-04-25 15:37 29.46460 20.17338 36750 ft 539 kts 160°
2026-04-25 15:37 29.39864 20.21447 36737 ft 539 kts 160°
2026-04-25 15:38 29.33276 20.25542 36741 ft 540 kts 160°
2026-04-25 15:38 29.26658 20.29651 36740 ft 540 kts 160°
2026-04-25 15:39 29.20053 20.33747 36744 ft 540 kts 160°
2026-04-25 15:39 29.13451 20.37833 36738 ft 539 kts 160°
2026-04-25 15:40 29.07964 20.41224 36741 ft 540 kts 160°
2026-04-25 15:40 29.00224 20.46003 36748 ft 541 kts 160°
2026-04-25 15:41 28.93647 20.50057 36724 ft 540 kts 160°
2026-04-25 15:41 28.87042 20.54121 36728 ft 539 kts 160°
2026-04-25 15:42 28.80433 20.58182 36728 ft 539 kts 160°
2026-04-25 15:42 28.73833 20.62233 36739 ft 539 kts 161°
2026-04-25 15:43 28.67231 20.66277 36728 ft 539 kts 161°
2026-04-25 15:43 28.60628 20.70319 36725 ft 538 kts 161°
2026-04-25 15:44 28.54026 20.74350 36720 ft 538 kts 161°
2026-04-25 15:44 28.47425 20.78379 36726 ft 538 kts 161°
2026-04-25 15:45 28.40838 20.82392 36730 ft 536 kts 162°
2026-04-25 15:45 28.35375 20.85716 36724 ft 535 kts 162°
2026-04-25 15:46 28.27661 20.90030 36733 ft 530 kts 166°
2026-04-25 15:46 28.20949 20.93523 36737 ft 530 kts 165°
2026-04-25 15:47 28.14267 20.97021 36732 ft 527 kts 166°
2026-04-25 15:47 28.07598 21.00485 36733 ft 528 kts 166°
2026-04-25 15:48 28.00925 21.03964 36728 ft 528 kts 166°
2026-04-25 15:48 27.94254 21.07426 36732 ft 528 kts 166°
2026-04-25 15:49 27.87572 21.10895 36732 ft 528 kts 166°
2026-04-25 15:49 27.80951 21.14327 36701 ft 526 kts 167°
2026-04-25 15:50 27.74303 21.17763 36723 ft 526 kts 166°
2026-04-25 15:50 27.67660 21.21198 36725 ft 526 kts 167°
2026-04-25 15:51 27.62081 21.24076 36719 ft 526 kts 166°
2026-04-25 15:51 27.54439 21.28479 36679 ft 533 kts 162°
2026-04-25 15:52 27.47939 21.32491 36722 ft 532 kts 162°
2026-04-25 15:52 27.41489 21.36459 36723 ft 531 kts 162°
2026-04-25 15:53 27.35004 21.40450 36718 ft 531 kts 162°
2026-04-25 15:53 27.28507 21.44436 36718 ft 533 kts 162°
2026-04-25 15:54 27.22001 21.48430 36727 ft 531 kts 162°
2026-04-25 15:54 27.15505 21.52405 36719 ft 531 kts 162°
2026-04-25 15:55 27.09010 21.56380 36713 ft 531 kts 162°
2026-04-25 15:55 27.02516 21.60345 36713 ft 531 kts 162°
2026-04-25 15:56 26.96021 21.64308 36715 ft 531 kts 162°
2026-04-25 15:56 26.89527 21.68266 36715 ft 530 kts 163°
2026-04-25 15:57 26.83046 21.72206 36705 ft 530 kts 163°
2026-04-25 15:57 26.76565 21.76146 36702 ft 530 kts 163°
2026-04-25 15:58 26.70128 21.80049 36711 ft 531 kts 163°
2026-04-25 15:58 26.63632 21.83989 36708 ft 530 kts 163°
2026-04-25 15:59 26.57169 21.87901 36704 ft 528 kts 163°
2026-04-25 15:59 26.50709 21.91803 36702 ft 528 kts 163°
2026-04-25 16:00 26.46386 21.94416 36697 ft 527 kts 163°
2026-04-25 16:00 26.37800 21.99590 36698 ft 527 kts 163°
2026-04-25 16:01 26.31340 22.03481 36701 ft 528 kts 163°
2026-04-25 16:01 26.24934 22.07337 36686 ft 526 kts 163°
2026-04-25 16:02 26.18495 22.11199 36694 ft 526 kts 163°
2026-04-25 16:02 26.12063 22.15061 36690 ft 525 kts 163°
2026-04-25 16:03 26.05634 22.18909 36692 ft 525 kts 163°
2026-04-25 16:03 25.99209 22.22754 36693 ft 526 kts 163°
2026-04-25 16:04 25.92755 22.26612 36691 ft 526 kts 163°
2026-04-25 16:04 25.86301 22.30464 36688 ft 526 kts 163°
2026-04-25 16:05 25.79851 22.34308 36686 ft 526 kts 163°
2026-04-25 16:06 25.70172 22.40069 36692 ft 526 kts 163°
2026-04-25 16:06 25.63770 22.43876 36692 ft 523 kts 163°
2026-04-25 16:07 25.57328 22.47695 36687 ft 524 kts 164°
2026-04-25 16:07 25.50896 22.51510 36688 ft 525 kts 164°
2026-04-25 16:08 25.44448 22.55327 36693 ft 525 kts 164°
2026-04-25 16:08 25.38013 22.59133 36683 ft 524 kts 164°
2026-04-25 16:09 25.31594 22.62925 36698 ft 523 kts 164°
2026-04-25 16:09 25.25209 22.66689 36701 ft 523 kts 164°
2026-04-25 16:10 25.18784 22.70476 36675 ft 523 kts 164°
2026-04-25 16:10 25.12364 22.74253 36676 ft 523 kts 164°
2026-04-25 16:11 25.05938 22.78031 36695 ft 523 kts 164°
2026-04-25 16:11 24.99528 22.81795 36677 ft 521 kts 164°
2026-04-25 16:12 24.93109 22.85556 36683 ft 522 kts 164°
2026-04-25 16:12 24.86699 22.89313 36679 ft 522 kts 164°
2026-04-25 16:13 24.80292 22.93060 36673 ft 521 kts 164°
2026-04-25 16:13 24.73884 22.96805 36670 ft 521 kts 164°
2026-04-25 16:14 24.67479 23.00544 36672 ft 520 kts 164°
2026-04-25 16:14 24.61136 23.04239 36665 ft 520 kts 164°
2026-04-25 16:15 24.54738 23.07966 36662 ft 519 kts 164°
2026-04-25 16:15 24.48358 23.11675 36646 ft 519 kts 163°
2026-04-25 16:16 24.41974 23.15384 36652 ft 520 kts 164°
2026-04-25 16:16 24.35586 23.19092 36656 ft 519 kts 163°
2026-04-25 16:17 24.29222 23.22778 36649 ft 519 kts 163°
2026-04-25 16:17 24.22829 23.26480 36639 ft 519 kts 163°
2026-04-25 16:18 24.16432 23.30176 36641 ft 518 kts 166°
2026-04-25 16:18 24.09889 23.33093 36635 ft 505 kts 171°
2026-04-25 16:19 24.03333 23.35851 36635 ft 505 kts 171°
2026-04-25 16:19 23.96760 23.38608 36632 ft 505 kts 171°
2026-04-25 16:20 23.86954 23.42719 36623 ft 504 kts 171°
2026-04-25 16:21 23.77115 23.46836 36621 ft 505 kts 171°
2026-04-25 16:21 23.70568 23.49573 36613 ft 504 kts 171°
2026-04-25 16:22 23.64015 23.52308 36611 ft 504 kts 171°
2026-04-25 16:22 23.57457 23.55044 36610 ft 504 kts 171°
2026-04-25 16:23 23.50906 23.57772 36607 ft 504 kts 171°
2026-04-25 16:23 23.44363 23.60495 36571 ft 503 kts 170°
2026-04-25 16:24 23.37832 23.63209 36610 ft 503 kts 170°
2026-04-25 16:24 23.31319 23.65914 36586 ft 503 kts 170°
2026-04-25 16:25 23.24770 23.68631 36582 ft 503 kts 170°
2026-04-25 16:25 23.18245 23.71335 36586 ft 503 kts 170°
2026-04-25 16:26 23.11706 23.74041 36563 ft 503 kts 170°
2026-04-25 16:26 23.06255 23.76295 36576 ft 504 kts 170°
2026-04-25 16:27 22.99708 23.79002 36571 ft 503 kts 170°
2026-04-25 16:27 22.93160 23.81702 36570 ft 503 kts 170°
2026-04-25 16:28 22.86612 23.84403 36572 ft 504 kts 170°
2026-04-25 16:28 22.80056 23.87102 36574 ft 504 kts 170°
2026-04-25 16:29 22.73504 23.89798 36559 ft 504 kts 170°
2026-04-25 16:29 22.66948 23.92493 36559 ft 504 kts 170°
2026-04-25 16:30 22.60434 23.95168 36553 ft 504 kts 170°
2026-04-25 16:30 22.53882 23.97856 36554 ft 503 kts 170°
2026-04-25 16:31 22.47346 24.00533 36564 ft 502 kts 169°
2026-04-25 16:31 22.40783 24.03219 36567 ft 504 kts 169°
2026-04-25 16:32 22.34225 24.05902 36561 ft 504 kts 169°
2026-04-25 16:32 22.27674 24.08579 36553 ft 502 kts 169°
2026-04-25 16:33 22.21160 24.11236 36553 ft 503 kts 169°
2026-04-25 16:33 22.14633 24.13898 36556 ft 502 kts 169°
2026-04-25 16:34 22.08088 24.16563 36557 ft 503 kts 169°
2026-04-25 16:34 22.01538 24.19229 36555 ft 502 kts 169°
2026-04-25 16:35 21.95007 24.21883 36557 ft 502 kts 169°
2026-04-25 16:35 21.88469 24.24539 36554 ft 501 kts 169°
2026-04-25 16:36 21.81936 24.27188 36553 ft 503 kts 169°
2026-04-25 16:36 21.75430 24.29827 36555 ft 503 kts 169°
2026-04-25 16:37 21.68881 24.32477 36551 ft 503 kts 169°
2026-04-25 16:37 21.62327 24.35129 36550 ft 502 kts 169°
2026-04-25 16:38 21.55794 24.37769 36551 ft 502 kts 169°
2026-04-25 16:38 21.49254 24.40408 36560 ft 503 kts 168°
2026-04-25 16:39 21.42695 24.43055 36566 ft 503 kts 168°
2026-04-25 16:39 21.36140 24.45696 36566 ft 503 kts 168°
2026-04-25 16:40 21.29587 24.48334 36565 ft 502 kts 168°
2026-04-25 16:40 21.23084 24.50950 36562 ft 502 kts 168°
2026-04-25 16:41 21.16541 24.53577 36561 ft 504 kts 168°
2026-04-25 16:41 21.06679 24.57537 36576 ft 504 kts 168°
2026-04-25 16:42 21.00109 24.60170 36582 ft 504 kts 168°
2026-04-25 16:42 20.93531 24.62805 36582 ft 504 kts 168°
2026-04-25 16:43 20.86965 24.65431 36574 ft 503 kts 168°
2026-04-25 16:43 20.80384 24.68062 36579 ft 505 kts 168°
2026-04-25 16:44 20.73802 24.70691 36589 ft 504 kts 168°
2026-04-25 16:44 20.67236 24.73311 36581 ft 504 kts 168°
2026-04-25 16:45 20.60710 24.75912 36573 ft 504 kts 168°
2026-04-25 16:45 20.54129 24.78533 36598 ft 504 kts 168°
2026-04-25 16:46 20.47549 24.81151 36590 ft 505 kts 168°
2026-04-25 16:46 20.42063 24.83332 36592 ft 505 kts 168°
2026-04-25 16:47 20.34362 24.86391 36597 ft 506 kts 168°
2026-04-25 16:47 20.27762 24.89010 36588 ft 506 kts 168°
2026-04-25 16:48 20.21172 24.91621 36581 ft 506 kts 167°
2026-04-25 16:48 20.14571 24.94237 36579 ft 506 kts 167°
2026-04-25 16:49 20.08006 24.96834 36576 ft 506 kts 167°
2026-04-25 16:49 20.01406 24.99450 36578 ft 507 kts 165°
2026-04-25 16:50 19.98199 25.01120 36606 ft 519 kts 157°
2026-04-25 16:50 19.95073 25.03063 36586 ft 521 kts 157°
2026-04-25 16:50 19.88842 25.06983 36577 ft 520 kts 157°
2026-04-25 16:51 19.82590 25.10869 36578 ft 521 kts 157°
2026-04-25 16:51 19.77401 25.14113 36583 ft 521 kts 156°
2026-04-25 16:52 19.70081 25.18671 36583 ft 521 kts 157°
2026-04-25 16:52 19.63835 25.22561 36580 ft 521 kts 157°
2026-04-25 16:53 19.54451 25.28394 36580 ft 521 kts 157°
2026-04-25 16:54 19.48201 25.32277 36579 ft 521 kts 157°
2026-04-25 16:54 19.41944 25.36158 36571 ft 521 kts 156°
2026-04-25 16:55 19.35696 25.40032 36571 ft 520 kts 157°
2026-04-25 16:55 19.29484 25.43880 36569 ft 520 kts 157°
2026-04-25 16:56 19.23247 25.47740 36554 ft 519 kts 156°
2026-04-25 16:56 19.17022 25.51590 36577 ft 518 kts 156°
2026-04-25 16:57 19.10798 25.55436 36574 ft 518 kts 156°
2026-04-25 16:57 19.04567 25.59282 36573 ft 518 kts 156°
2026-04-25 16:58 18.98343 25.63122 36572 ft 518 kts 156°
2026-04-25 16:58 18.92124 25.66954 36565 ft 517 kts 156°
2026-04-25 16:59 18.85919 25.70774 36577 ft 516 kts 156°
2026-04-25 16:59 18.79715 25.74591 36577 ft 516 kts 156°
2026-04-25 17:00 18.73544 25.78385 36580 ft 516 kts 156°
2026-04-25 17:00 18.67343 25.82193 36578 ft 515 kts 156°
2026-04-25 17:01 18.61145 25.85995 36580 ft 516 kts 156°
2026-04-25 17:01 18.54931 25.89805 36571 ft 516 kts 156°
2026-04-25 17:02 18.48731 25.93604 36572 ft 515 kts 156°
2026-04-25 17:02 18.42533 25.97396 36573 ft 514 kts 156°
2026-04-25 17:03 18.36339 26.01184 36574 ft 515 kts 156°
2026-04-25 17:03 18.30150 26.04965 36577 ft 515 kts 156°
2026-04-25 17:04 18.23946 26.08753 36574 ft 515 kts 156°
2026-04-25 17:04 18.17772 26.12520 36580 ft 512 kts 155°
2026-04-25 17:05 18.11605 26.16277 36584 ft 512 kts 155°
2026-04-25 17:05 18.02369 26.21901 36580 ft 512 kts 155°
2026-04-25 17:06 17.96246 26.25625 36580 ft 513 kts 155°
2026-04-25 17:06 17.90077 26.29375 36577 ft 511 kts 155°
2026-04-25 17:07 17.83943 26.33100 36573 ft 508 kts 155°
2026-04-25 17:07 17.77819 26.36814 36574 ft 508 kts 155°
2026-04-25 17:08 17.71703 26.40523 36573 ft 507 kts 155°
2026-04-25 17:08 17.65580 26.44232 36573 ft 507 kts 155°
2026-04-25 17:09 17.59507 26.47908 36570 ft 508 kts 155°
2026-04-25 17:09 17.53387 26.51609 36561 ft 506 kts 155°
2026-04-25 17:10 17.47292 26.55293 36577 ft 506 kts 155°
2026-04-25 17:10 17.41190 26.58978 36571 ft 505 kts 155°
2026-04-25 17:11 17.35103 26.62651 36566 ft 505 kts 155°
2026-04-25 17:11 17.28997 26.66332 36572 ft 507 kts 155°
2026-04-25 17:12 17.22880 26.70018 36578 ft 507 kts 155°
2026-04-25 17:12 17.16791 26.73684 36569 ft 504 kts 154°
2026-04-25 17:13 17.12761 26.76108 36570 ft 504 kts 155°
2026-04-25 17:13 17.04668 26.80974 36574 ft 504 kts 155°
2026-04-25 17:14 16.98584 26.84627 36574 ft 504 kts 155°
2026-04-25 17:14 16.93532 26.87660 36571 ft 504 kts 154°
2026-04-25 17:15 16.87459 26.91303 36576 ft 504 kts 154°
2026-04-25 17:15 16.81398 26.94937 36581 ft 501 kts 154°
2026-04-25 17:16 16.75345 26.98561 36590 ft 501 kts 154°
2026-04-25 17:16 16.69303 27.02177 36583 ft 501 kts 154°
2026-04-25 17:17 16.63240 27.05803 36591 ft 503 kts 154°
2026-04-25 17:17 16.57174 27.09428 36591 ft 502 kts 154°
2026-04-25 17:18 16.51106 27.13051 36583 ft 502 kts 154°
2026-04-25 17:18 16.45076 27.16651 36588 ft 500 kts 154°
2026-04-25 17:19 16.39029 27.20255 36582 ft 500 kts 154°
2026-04-25 17:19 16.32991 27.23853 36581 ft 500 kts 154°
2026-04-25 17:20 16.26990 27.27426 36590 ft 500 kts 154°
2026-04-25 17:20 16.20938 27.31028 36590 ft 500 kts 154°
2026-04-25 17:21 16.14884 27.34627 36585 ft 500 kts 154°
2026-04-25 17:21 16.08841 27.38218 36581 ft 499 kts 154°
2026-04-25 17:22 16.03832 27.41192 36578 ft 499 kts 154°
2026-04-25 17:22 15.96813 27.45356 36581 ft 500 kts 154°
2026-04-25 17:23 15.90774 27.48937 36591 ft 500 kts 154°
2026-04-25 17:23 15.84727 27.52520 36591 ft 500 kts 154°
2026-04-25 17:24 15.78707 27.56085 36584 ft 497 kts 154°
2026-04-25 17:24 15.72687 27.59646 36579 ft 498 kts 154°
2026-04-25 17:25 15.66667 27.63205 36577 ft 498 kts 154°
2026-04-25 17:25 15.60643 27.66764 36578 ft 498 kts 154°
2026-04-25 17:26 15.54619 27.70321 36582 ft 498 kts 154°
2026-04-25 17:26 15.48635 27.73852 36573 ft 498 kts 154°
2026-04-25 17:27 15.42619 27.77399 36568 ft 497 kts 154°
2026-04-25 17:27 15.37574 27.80371 36569 ft 497 kts 154°
2026-04-25 17:28 15.30580 27.84490 36563 ft 498 kts 154°
2026-04-25 17:28 15.24570 27.88027 36564 ft 498 kts 154°
2026-04-25 17:29 15.18537 27.91575 36567 ft 498 kts 154°
2026-04-25 17:29 15.12512 27.95116 36560 ft 496 kts 154°
2026-04-25 17:30 15.06510 27.98641 36565 ft 496 kts 154°
2026-04-25 17:30 15.00505 28.02165 36561 ft 496 kts 154°
2026-04-25 17:31 14.94500 28.05687 36562 ft 497 kts 154°
2026-04-25 17:31 14.88485 28.09213 36555 ft 496 kts 154°
2026-04-25 17:32 14.82493 28.12723 36553 ft 496 kts 154°
2026-04-25 17:32 14.76546 28.16205 36555 ft 493 kts 153°
2026-04-25 17:33 14.70580 28.19694 36544 ft 493 kts 153°
2026-04-25 17:33 14.64612 28.23181 36545 ft 493 kts 153°
2026-04-25 17:34 14.58647 28.26666 36541 ft 492 kts 153°
2026-04-25 17:34 14.52671 28.30153 36545 ft 493 kts 153°
2026-04-25 17:35 14.46697 28.33638 36535 ft 493 kts 153°
2026-04-25 17:35 14.40720 28.37123 36538 ft 493 kts 153°
2026-04-25 17:36 14.34785 28.40581 36540 ft 493 kts 153°
2026-04-25 17:36 14.28813 28.44058 36543 ft 493 kts 153°
2026-04-25 17:37 14.22838 28.47535 36545 ft 493 kts 153°
2026-04-25 17:37 14.16851 28.51016 36549 ft 494 kts 153°
2026-04-25 17:38 14.11879 28.53906 36549 ft 493 kts 153°
2026-04-25 17:38 14.04907 28.57957 36535 ft 491 kts 153°
2026-04-25 17:39 13.98952 28.61413 36530 ft 491 kts 153°
2026-04-25 17:39 13.92990 28.64872 36531 ft 491 kts 153°
2026-04-25 17:40 13.87040 28.68321 36537 ft 491 kts 153°
2026-04-25 17:40 13.81111 28.71757 36544 ft 492 kts 153°
2026-04-25 17:41 13.75148 28.75210 36544 ft 491 kts 152°
2026-04-25 17:41 13.69196 28.78655 36545 ft 491 kts 152°
2026-04-25 17:42 13.63238 28.82101 36540 ft 491 kts 152°
2026-04-25 17:42 13.57273 28.85550 36541 ft 491 kts 152°
2026-04-25 17:43 13.51361 28.88965 36545 ft 491 kts 152°
2026-04-25 17:43 13.45400 28.92407 36541 ft 491 kts 152°
2026-04-25 17:44 13.39463 28.95834 36539 ft 489 kts 152°
2026-04-25 17:44 13.33527 28.99257 36540 ft 488 kts 152°
2026-04-25 17:45 13.29601 29.01521 36536 ft 488 kts 152°
2026-04-25 17:45 13.21715 29.06064 36543 ft 488 kts 152°
2026-04-25 17:46 13.15787 29.09477 36547 ft 488 kts 152°
2026-04-25 17:46 13.09858 29.12890 36542 ft 488 kts 152°
2026-04-25 17:47 13.03940 29.16293 36547 ft 486 kts 152°
2026-04-25 17:47 12.98038 29.19685 36546 ft 486 kts 152°
2026-04-25 17:48 12.89217 29.24753 36547 ft 486 kts 152°
2026-04-25 17:49 12.83304 29.28147 36549 ft 487 kts 152°
2026-04-25 17:49 12.77391 29.31540 36550 ft 487 kts 152°
2026-04-25 17:50 12.71480 29.34929 36549 ft 487 kts 152°
2026-04-25 17:50 12.65562 29.38321 36548 ft 486 kts 152°
2026-04-25 17:51 12.59650 29.41708 36548 ft 487 kts 152°
2026-04-25 17:51 12.53772 29.45072 36547 ft 487 kts 152°
2026-04-25 17:52 12.47847 29.48463 36547 ft 487 kts 152°
2026-04-25 17:52 12.41935 29.51844 36549 ft 486 kts 152°
2026-04-25 17:53 12.36026 29.55222 36547 ft 488 kts 152°
2026-04-25 17:53 12.30104 29.58605 36549 ft 487 kts 152°
2026-04-25 17:54 12.24172 29.61992 36551 ft 487 kts 152°
2026-04-25 17:54 12.18245 29.65375 36553 ft 488 kts 152°
2026-04-25 17:55 12.12312 29.68759 36560 ft 489 kts 152°
2026-04-25 17:55 12.06409 29.72125 36559 ft 489 kts 152°
2026-04-25 17:56 12.00462 29.75514 36553 ft 489 kts 152°
2026-04-25 17:56 11.94509 29.78904 36554 ft 489 kts 152°
2026-04-25 17:57 11.88573 29.82283 36551 ft 489 kts 152°
2026-04-25 17:57 11.82625 29.85667 36552 ft 489 kts 152°
2026-04-25 17:58 11.76676 29.89050 36551 ft 489 kts 152°
2026-04-25 17:58 11.70722 29.92435 36545 ft 489 kts 152°
2026-04-25 17:59 11.64769 29.95817 36547 ft 489 kts 152°
2026-04-25 17:59 11.58860 29.99172 36539 ft 489 kts 152°
2026-04-25 18:00 11.52909 30.02550 36537 ft 489 kts 152°
2026-04-25 18:00 11.46968 30.05920 36539 ft 489 kts 152°
2026-04-25 18:01 11.41017 30.09295 36541 ft 489 kts 151°
2026-04-25 18:01 11.35073 30.12663 36540 ft 490 kts 151°
2026-04-25 18:02 11.30120 30.15469 36541 ft 490 kts 151°
2026-04-25 18:02 11.24161 30.18843 36546 ft 490 kts 151°
2026-04-25 18:03 11.18193 30.22221 36551 ft 492 kts 151°
2026-04-25 18:03 11.12218 30.25601 36547 ft 491 kts 151°
2026-04-25 18:04 11.06235 30.28984 36545 ft 492 kts 151°
2026-04-25 18:04 11.00238 30.32373 36545 ft 493 kts 151°
2026-04-25 18:05 10.94274 30.35742 36545 ft 493 kts 151°
2026-04-25 18:05 10.88273 30.39130 36535 ft 493 kts 151°
2026-04-25 18:06 10.82276 30.42515 36540 ft 493 kts 151°
2026-04-25 18:06 10.76281 30.45897 36530 ft 492 kts 151°
2026-04-25 18:07 10.70297 30.49271 36530 ft 491 kts 151°
2026-04-25 18:07 10.64295 30.52654 36519 ft 492 kts 151°
2026-04-25 18:08 10.58286 30.56039 36524 ft 493 kts 151°
2026-04-25 18:08 10.52325 30.59395 36520 ft 493 kts 151°
2026-04-25 18:09 10.46314 30.62779 36521 ft 493 kts 151°
2026-04-25 18:09 10.40317 30.66153 36520 ft 492 kts 151°
2026-04-25 18:10 10.34354 30.69508 36507 ft 488 kts 152°
2026-04-25 18:10 10.28403 30.72856 36511 ft 489 kts 152°
2026-04-25 18:11 10.22456 30.76199 36505 ft 489 kts 152°
2026-04-25 18:11 10.16467 30.79565 36509 ft 493 kts 151°
2026-04-25 18:12 10.10535 30.82898 36503 ft 489 kts 151°
2026-04-25 18:12 10.04555 30.86257 36525 ft 491 kts 152°
2026-04-25 18:13 9.98567 30.89617 36531 ft 491 kts 152°
2026-04-25 18:13 9.92614 30.92956 36523 ft 490 kts 152°
2026-04-25 18:14 9.83656 30.97974 36529 ft 493 kts 151°
2026-04-25 18:14 9.77653 31.01337 36537 ft 493 kts 151°
2026-04-25 18:15 9.71640 31.04702 36539 ft 493 kts 151°
2026-04-25 18:15 9.65685 31.08034 36529 ft 492 kts 151°
2026-04-25 18:16 9.59699 31.11381 36528 ft 488 kts 151°
2026-04-25 18:17 9.50723 31.16399 36532 ft 492 kts 151°
2026-04-25 18:17 9.44760 31.19730 36527 ft 487 kts 151°
2026-04-25 18:18 9.38822 31.23047 36517 ft 488 kts 151°
2026-04-25 18:18 9.32836 31.26389 36533 ft 490 kts 151°
2026-04-25 18:19 9.26880 31.29713 36546 ft 491 kts 151°
2026-04-25 18:19 9.20933 31.33029 36532 ft 490 kts 151°
2026-04-25 18:20 9.14957 31.36362 36539 ft 488 kts 151°
2026-04-25 18:20 9.08990 31.39688 36543 ft 490 kts 151°
2026-04-25 18:21 9.03029 31.43010 36550 ft 489 kts 151°
2026-04-25 18:21 8.97081 31.46322 36550 ft 488 kts 151°
2026-04-25 18:22 8.91090 31.49658 36550 ft 492 kts 151°
2026-04-25 18:22 8.85094 31.52994 36550 ft 493 kts 151°
2026-04-25 18:23 8.79122 31.56317 36541 ft 488 kts 150°
2026-04-25 18:23 8.73179 31.59622 36540 ft 489 kts 151°
2026-04-25 18:24 8.67182 31.62956 36544 ft 492 kts 151°
2026-04-25 18:24 8.61220 31.66270 36553 ft 492 kts 151°
2026-04-25 18:25 8.55214 31.69607 36556 ft 492 kts 151°
2026-04-25 18:25 8.49209 31.72942 36558 ft 492 kts 151°
2026-04-25 18:26 8.43217 31.76270 36558 ft 491 kts 151°
2026-04-25 18:26 8.37221 31.79597 36560 ft 492 kts 151°
2026-04-25 18:27 8.31212 31.82932 36560 ft 493 kts 150°
2026-04-25 18:27 8.25202 31.86265 36556 ft 493 kts 150°
2026-04-25 18:28 8.19185 31.89601 36559 ft 493 kts 150°
2026-04-25 18:28 8.13216 31.92910 36559 ft 493 kts 150°
2026-04-25 18:29 8.04191 31.97910 36559 ft 493 kts 150°
2026-04-25 18:30 7.92183 32.04558 36564 ft 492 kts 150°
2026-04-25 18:30 7.86177 32.07883 36562 ft 493 kts 150°
2026-04-25 18:31 7.80200 32.11189 36566 ft 493 kts 150°
2026-04-25 18:31 7.74147 32.14537 36565 ft 492 kts 150°
2026-04-25 18:32 7.68194 32.17829 36565 ft 491 kts 150°
2026-04-25 18:32 7.62200 32.21141 36561 ft 491 kts 150°
2026-04-25 18:33 7.56214 32.24449 36566 ft 491 kts 150°
2026-04-25 18:33 7.50224 32.27757 36566 ft 491 kts 150°
2026-04-25 18:34 7.44226 32.31069 36567 ft 491 kts 150°
2026-04-25 18:34 7.38237 32.34375 36569 ft 491 kts 150°
2026-04-25 18:35 7.32204 32.37705 36566 ft 494 kts 150°
2026-04-25 18:35 7.26175 32.41030 36565 ft 494 kts 150°
2026-04-25 18:36 7.20130 32.44364 36565 ft 494 kts 150°
2026-04-25 18:36 7.14135 32.47669 36565 ft 494 kts 150°
2026-04-25 18:37 7.08073 32.51010 36568 ft 494 kts 150°
2026-04-25 18:37 7.02065 32.54321 36572 ft 495 kts 150°
2026-04-25 18:38 6.96010 32.57655 36569 ft 496 kts 150°
2026-04-25 18:38 6.89946 32.60995 36568 ft 496 kts 150°
2026-04-25 18:39 6.83899 32.64323 36559 ft 495 kts 150°
2026-04-25 18:39 6.77860 32.67647 36558 ft 495 kts 150°
2026-04-25 18:40 6.71819 32.70971 36556 ft 495 kts 150°
2026-04-25 18:40 6.65811 32.74275 36557 ft 491 kts 150°
2026-04-25 18:41 6.59806 32.77577 36559 ft 491 kts 150°
2026-04-25 18:41 6.53851 32.80850 36557 ft 491 kts 150°
2026-04-25 18:42 6.49879 32.83033 36554 ft 491 kts 150°
2026-04-25 18:42 6.41865 32.87436 36553 ft 491 kts 150°
2026-04-25 18:43 6.35871 32.90729 36558 ft 493 kts 150°
2026-04-25 18:43 6.29840 32.94040 36562 ft 493 kts 150°
2026-04-25 18:44 6.23810 32.97351 36562 ft 493 kts 150°
2026-04-25 18:44 6.17828 33.00633 36560 ft 492 kts 150°
2026-04-25 18:45 6.11815 33.03932 36562 ft 493 kts 150°
2026-04-25 18:45 6.05789 33.07238 36564 ft 493 kts 150°
2026-04-25 18:46 5.99771 33.10538 36563 ft 493 kts 150°
2026-04-25 18:46 5.93749 33.13840 36571 ft 493 kts 150°
2026-04-25 18:47 5.87726 33.17141 36569 ft 493 kts 150°
2026-04-25 18:47 5.81692 33.20448 36575 ft 494 kts 150°
2026-04-25 18:48 5.75688 33.23737 36579 ft 494 kts 150°
2026-04-25 18:48 5.70628 33.26508 36586 ft 495 kts 150°
2026-04-25 18:49 5.63601 33.30356 36588 ft 496 kts 150°
2026-04-25 18:49 5.57545 33.33672 36589 ft 495 kts 150°
2026-04-25 18:50 5.51488 33.36987 36590 ft 495 kts 150°
2026-04-25 18:50 5.46449 33.39744 36593 ft 495 kts 150°
2026-04-25 18:51 5.41409 33.42502 36594 ft 495 kts 150°
2026-04-25 18:51 5.34340 33.46368 36596 ft 496 kts 150°
2026-04-25 18:52 5.28278 33.49683 36597 ft 496 kts 150°
2026-04-25 18:52 5.22215 33.52998 36594 ft 495 kts 150°
2026-04-25 18:53 5.16161 33.56307 36597 ft 496 kts 150°
2026-04-25 18:53 5.10149 33.59592 36597 ft 496 kts 150°
2026-04-25 18:54 5.01054 33.64561 36606 ft 496 kts 150°
2026-04-25 18:55 4.94978 33.67880 36609 ft 497 kts 150°
2026-04-25 18:55 4.88905 33.71196 36611 ft 496 kts 150°
2026-04-25 18:56 4.82829 33.74513 36612 ft 497 kts 150°
2026-04-25 18:56 4.76759 33.77826 36628 ft 497 kts 150°
2026-04-25 18:57 4.70664 33.81153 36616 ft 498 kts 150°
2026-04-25 18:57 4.64572 33.84476 36634 ft 498 kts 150°
2026-04-25 18:58 4.58478 33.87801 36634 ft 498 kts 150°
2026-04-25 18:58 4.49376 33.92765 36641 ft 499 kts 150°
2026-04-25 18:59 4.37191 33.99408 36654 ft 497 kts 150°
2026-04-25 19:00 4.28058 34.04385 36651 ft 498 kts 150°
2026-04-25 19:01 4.18934 34.09357 36649 ft 497 kts 150°
2026-04-25 19:01 4.12867 34.12661 36651 ft 497 kts 150°
2026-04-25 19:02 4.03720 34.17643 36664 ft 499 kts 150°
2026-04-25 19:03 3.95500 34.21902 36656 ft 501 kts 152°
2026-04-25 19:03 3.88223 34.25603 36674 ft 502 kts 153°
2026-04-25 19:04 3.78892 34.30277 36673 ft 501 kts 152°
2026-04-25 19:05 3.66376 34.36561 36661 ft 503 kts 152°
2026-04-25 19:06 3.60110 34.39710 36670 ft 504 kts 152°
2026-04-25 19:06 3.50706 34.44431 36665 ft 504 kts 152°
2026-04-25 19:07 3.41288 34.49158 36665 ft 505 kts 152°
2026-04-25 19:08 3.31878 34.53881 36664 ft 504 kts 152°
2026-04-25 19:09 3.20379 34.59650 36676 ft 505 kts 152°
2026-04-25 19:10 3.09917 34.64898 36667 ft 506 kts 152°
2026-04-25 19:10 3.03615 34.68058 36667 ft 506 kts 152°
2026-04-25 19:11 2.97308 34.71220 36666 ft 506 kts 152°
2026-04-25 19:11 2.91018 34.74374 36655 ft 505 kts 152°
2026-04-25 19:12 2.84739 34.77522 36660 ft 505 kts 152°
2026-04-25 19:12 2.78484 34.80657 36660 ft 505 kts 152°
2026-04-25 19:13 2.72201 34.83807 36666 ft 506 kts 152°
2026-04-25 19:13 2.65907 34.86961 36655 ft 506 kts 152°
2026-04-25 19:14 2.59606 34.90118 36668 ft 506 kts 152°
2026-04-25 19:14 2.53309 34.93273 36668 ft 506 kts 152°
2026-04-25 19:15 2.47008 34.96430 36661 ft 507 kts 152°
2026-04-25 19:15 2.40575 34.99315 36664 ft 508 kts 156°
2026-04-25 19:16 2.34093 35.02031 36683 ft 508 kts 156°
2026-04-25 19:16 2.27576 35.04774 36666 ft 508 kts 156°
2026-04-25 19:17 2.21056 35.07508 36680 ft 507 kts 156°
2026-04-25 19:17 2.14537 35.10249 36682 ft 510 kts 156°
2026-04-25 19:18 2.07998 35.12992 36699 ft 510 kts 156°
2026-04-25 19:18 2.01463 35.15737 36683 ft 509 kts 156°
2026-04-25 19:19 1.94941 35.18475 36692 ft 508 kts 156°
2026-04-25 19:19 1.88396 35.21223 36693 ft 510 kts 156°
2026-04-25 19:20 1.81905 35.23946 36698 ft 509 kts 156°
2026-04-25 19:20 1.75366 35.26692 36691 ft 510 kts 156°
2026-04-25 19:21 1.68806 35.29444 36705 ft 510 kts 156°
2026-04-25 19:21 1.58999 35.33560 36725 ft 511 kts 156°
2026-04-25 19:22 1.52451 35.36308 36717 ft 509 kts 156°
2026-04-25 19:23 1.42656 35.40417 36737 ft 508 kts 156°
2026-04-25 19:23 1.32883 35.44518 36756 ft 508 kts 156°
2026-04-25 19:24 1.26392 35.47241 36751 ft 508 kts 156°
2026-04-25 19:25 1.13342 35.52715 36765 ft 510 kts 156°
2026-04-25 19:25 1.06826 35.55547 36762 ft 510 kts 155°
2026-04-25 19:26 1.00334 35.58402 36755 ft 511 kts 156°
2026-04-25 19:26 0.93811 35.61235 36756 ft 510 kts 155°
2026-04-25 19:27 0.89459 35.63151 36757 ft 511 kts 155°
2026-04-25 19:27 0.80779 35.66932 36738 ft 511 kts 155°
2026-04-25 19:28 0.74267 35.69783 36743 ft 511 kts 155°
2026-04-25 19:28 0.67752 35.72625 36744 ft 511 kts 155°
2026-04-25 19:29 0.61265 35.75461 36741 ft 511 kts 155°
2026-04-25 19:29 0.54734 35.78312 36739 ft 512 kts 155°
2026-04-25 19:30 0.48203 35.81165 36755 ft 513 kts 155°
2026-04-25 19:30 0.41657 35.84024 36755 ft 512 kts 155°
2026-04-25 19:31 0.35121 35.86879 36770 ft 512 kts 155°
2026-04-25 19:31 0.28599 35.89728 36766 ft 513 kts 155°
2026-04-25 19:32 0.22093 35.92569 36788 ft 513 kts 155°
2026-04-25 19:32 0.17716 35.94481 36788 ft 513 kts 155°
2026-04-25 19:33 0.08994 35.98290 36815 ft 513 kts 155°
2026-04-25 19:33 0.02456 36.01146 36816 ft 514 kts 155°
2026-04-25 19:34 -0.04114 36.04015 36840 ft 516 kts 155°
2026-04-25 19:34 -0.10696 36.06890 36842 ft 516 kts 155°
2026-04-25 19:35 -0.17281 36.09766 36841 ft 516 kts 155°
2026-04-25 19:35 -0.22758 36.12158 36843 ft 517 kts 155°
2026-04-25 19:36 -0.29341 36.15076 36864 ft 516 kts 149°
2026-04-25 19:36 -0.36030 36.19969 36862 ft 512 kts 139°
2026-04-25 19:37 -0.40665 36.23726 36872 ft 512 kts 140°
2026-04-25 19:37 -0.46198 36.28136 36882 ft 512 kts 139°
2026-04-25 19:38 -0.51738 36.32601 36886 ft 512 kts 140°
2026-04-25 19:38 -0.57300 36.37055 36896 ft 512 kts 140°
2026-04-25 19:39 -0.62851 36.41517 36897 ft 513 kts 140°
2026-04-25 19:39 -0.68432 36.45994 36908 ft 514 kts 140°
2026-04-25 19:40 -0.74021 36.50482 36905 ft 515 kts 140°
2026-04-25 19:40 -0.79613 36.54970 36906 ft 516 kts 140°
2026-04-25 19:41 -0.85210 36.59463 36912 ft 516 kts 140°
2026-04-25 19:41 -0.89858 36.63195 36913 ft 516 kts 140°
2026-04-25 19:42 -0.96407 36.68453 36919 ft 517 kts 140°
2026-04-25 19:42 -1.01970 36.72920 36926 ft 516 kts 140°
2026-04-25 19:43 -1.07575 36.77420 36942 ft 517 kts 140°
2026-04-25 19:43 -1.13177 36.81918 36953 ft 516 kts 140°
2026-04-25 19:44 -1.18791 36.86426 36965 ft 517 kts 140°
2026-04-25 19:44 -1.24396 36.90927 36920 ft 516 kts 140°
2026-04-25 19:45 -1.30064 36.95227 36939 ft 516 kts 150°
2026-04-25 19:45 -1.36719 36.98096 36921 ft 518 kts 158°
2026-04-25 19:46 -1.43395 37.00697 36910 ft 519 kts 157°
2026-04-25 19:46 -1.50094 37.03366 36907 ft 518 kts 158°
2026-04-25 19:47 -1.56810 37.06000 36891 ft 516 kts 158°
2026-04-25 19:47 -1.63502 37.08653 36894 ft 517 kts 158°
2026-04-25 19:48 -1.70200 37.11290 36893 ft 517 kts 158°
2026-04-25 19:48 -1.76871 37.13928 36880 ft 516 kts 158°
2026-04-25 19:49 -1.82405 37.16112 36880 ft 517 kts 158°
2026-04-25 19:49 -1.90271 37.19218 36875 ft 518 kts 158°
2026-04-25 19:50 -2.00339 37.23194 36860 ft 518 kts 158°
2026-04-25 19:51 -2.06993 37.25823 36839 ft 518 kts 158°
2026-04-25 19:51 -2.13699 37.28471 36838 ft 518 kts 158°
2026-04-25 19:52 -2.20397 37.31117 36820 ft 517 kts 158°
2026-04-25 19:52 -2.27106 37.33768 36821 ft 519 kts 158°
2026-04-25 19:53 -2.33783 37.36406 36823 ft 519 kts 158°
2026-04-25 19:53 -2.40493 37.39057 36811 ft 518 kts 158°
2026-04-25 19:54 -2.47205 37.41710 36814 ft 519 kts 157°
2026-04-25 19:54 -2.53932 37.44369 36809 ft 519 kts 157°
2026-04-25 19:55 -2.60648 37.47024 36822 ft 519 kts 157°
2026-04-25 19:55 -2.67365 37.49680 36827 ft 520 kts 157°
2026-04-25 19:56 -2.74087 37.52337 36829 ft 520 kts 157°
2026-04-25 19:56 -2.80825 37.55002 36829 ft 520 kts 157°
2026-04-25 19:57 -2.87333 37.57987 36858 ft 518 kts 147°
2026-04-25 19:57 -2.93479 37.61753 36825 ft 517 kts 147°
2026-04-25 19:58 -2.99657 37.65481 36809 ft 518 kts 147°
2026-04-25 19:58 -3.05812 37.69219 36806 ft 518 kts 147°
2026-04-25 19:59 -3.11979 37.72960 36785 ft 518 kts 147°
2026-04-25 19:59 -3.18162 37.76708 36786 ft 519 kts 147°
2026-04-25 20:00 -3.24296 37.80432 36783 ft 519 kts 147°
2026-04-25 20:00 -3.30512 37.84201 36766 ft 519 kts 147°
2026-04-25 20:01 -3.39731 37.89796 36759 ft 519 kts 147°
2026-04-25 20:01 -3.45906 37.93544 36758 ft 518 kts 147°
2026-04-25 20:02 -3.52065 37.97283 36748 ft 517 kts 147°
2026-04-25 20:02 -3.58214 38.01017 36748 ft 517 kts 147°
2026-04-25 20:03 -3.64358 38.04762 36739 ft 516 kts 146°
2026-04-25 20:03 -3.70472 38.08556 36735 ft 516 kts 146°
2026-04-25 20:04 -3.76570 38.12300 36728 ft 517 kts 146°
2026-04-25 20:04 -3.82691 38.16084 36727 ft 517 kts 146°
2026-04-25 20:05 -3.88819 38.19858 36723 ft 516 kts 146°
2026-04-25 20:05 -3.94905 38.23614 36719 ft 513 kts 146°
2026-04-25 20:06 -4.00983 38.27363 36707 ft 512 kts 146°
2026-04-25 20:06 -4.07067 38.31111 36696 ft 513 kts 147°
2026-04-25 20:07 -4.13125 38.34798 36698 ft 513 kts 147°
2026-04-25 20:07 -4.19226 38.38536 36698 ft 514 kts 146°
2026-04-25 20:08 -4.25362 38.42285 36704 ft 517 kts 146°
2026-04-25 20:08 -4.31498 38.46039 36702 ft 516 kts 146°
2026-04-25 20:09 -4.37620 38.49784 36697 ft 516 kts 146°
2026-04-25 20:09 -4.43751 38.53535 36703 ft 516 kts 146°
2026-04-25 20:10 -4.49841 38.57262 36703 ft 516 kts 146°
2026-04-25 20:10 -4.55972 38.61014 36707 ft 516 kts 146°
2026-04-25 20:11 -4.62101 38.64767 36707 ft 516 kts 146°
2026-04-25 20:11 -4.68221 38.68514 36700 ft 515 kts 146°
2026-04-25 20:12 -4.74333 38.72258 36702 ft 515 kts 146°
2026-04-25 20:12 -4.78429 38.74768 36705 ft 517 kts 146°
2026-04-25 20:13 -4.86603 38.79774 36691 ft 517 kts 148°
2026-04-25 20:13 -4.92792 38.83404 36694 ft 517 kts 147°
2026-04-25 20:14 -4.98987 38.87090 36683 ft 517 kts 148°
2026-04-25 20:14 -5.05204 38.90725 36681 ft 518 kts 147°
2026-04-25 20:15 -5.11419 38.94409 36678 ft 519 kts 148°
2026-04-25 20:15 -5.17664 38.98076 36679 ft 520 kts 147°
2026-04-25 20:16 -5.23898 39.01762 36674 ft 520 kts 147°
2026-04-25 20:16 -5.30144 39.05439 36669 ft 520 kts 147°
2026-04-25 20:17 -5.36384 39.09124 36666 ft 521 kts 147°
2026-04-25 20:17 -5.42585 39.12781 36664 ft 520 kts 148°
2026-04-25 20:18 -5.48832 39.16469 36663 ft 518 kts 148°
2026-04-25 20:18 -5.55001 39.20111 36661 ft 517 kts 148°
2026-04-25 20:19 -5.61203 39.23773 36658 ft 517 kts 148°
2026-04-25 20:19 -5.67406 39.27437 36660 ft 517 kts 148°
2026-04-25 20:20 -5.73602 39.31098 36662 ft 517 kts 148°
2026-04-25 20:20 -5.79811 39.34767 36662 ft 517 kts 148°
2026-04-25 20:21 -5.85987 39.38417 36664 ft 514 kts 147°
2026-04-25 20:21 -5.92115 39.42064 36665 ft 517 kts 147°
2026-04-25 20:22 -5.96242 39.44554 36667 ft 517 kts 147°
2026-04-25 20:22 -6.04477 39.49477 36664 ft 517 kts 147°
2026-04-25 20:23 -6.10667 39.53196 36665 ft 517 kts 147°
2026-04-25 20:23 -6.16801 39.56869 36666 ft 517 kts 147°
2026-04-25 20:24 -6.22977 39.60576 36663 ft 516 kts 147°
2026-04-25 20:24 -6.29074 39.64383 36672 ft 516 kts 146°
2026-04-25 20:25 -6.35194 39.68198 36663 ft 517 kts 146°
2026-04-25 20:25 -6.41263 39.72079 36668 ft 517 kts 146°
2026-04-25 20:26 -6.47346 39.75903 36673 ft 520 kts 146°
2026-04-25 20:26 -6.53500 39.79706 36672 ft 519 kts 146°
2026-04-25 20:27 -6.59622 39.83531 36663 ft 515 kts 146°
2026-04-25 20:27 -6.64703 39.86686 36662 ft 516 kts 146°
2026-04-25 20:28 -6.70804 39.90487 36658 ft 516 kts 146°
2026-04-25 20:28 -6.76932 39.94303 36665 ft 518 kts 146°
2026-04-25 20:29 -6.83057 39.98117 36663 ft 517 kts 146°
2026-04-25 20:29 -6.89176 40.01927 36665 ft 517 kts 146°
2026-04-25 20:30 -6.95285 40.05732 36664 ft 513 kts 146°
2026-04-25 20:30 -7.01366 40.09522 36662 ft 517 kts 146°
2026-04-25 20:31 -7.07472 40.13327 36661 ft 516 kts 146°
2026-04-25 20:31 -7.13539 40.17111 36665 ft 516 kts 146°
2026-04-25 20:32 -7.19636 40.20912 36663 ft 516 kts 146°
2026-04-25 20:32 -7.25734 40.24718 36666 ft 516 kts 146°
2026-04-25 20:33 -7.31844 40.28530 36662 ft 515 kts 146°
2026-04-25 20:33 -7.36960 40.31724 36669 ft 516 kts 146°
2026-04-25 20:34 -7.44050 40.36152 36667 ft 516 kts 146°
2026-04-25 20:34 -7.50155 40.39966 36669 ft 517 kts 146°
2026-04-25 20:35 -7.56283 40.43796 36672 ft 520 kts 146°
2026-04-25 20:35 -7.62425 40.47634 36672 ft 519 kts 146°
2026-04-25 20:36 -7.68538 40.51457 36672 ft 517 kts 146°
2026-04-25 20:36 -7.74648 40.55280 36675 ft 516 kts 146°
2026-04-25 20:37 -7.80751 40.59099 36667 ft 518 kts 146°
2026-04-25 20:37 -7.86819 40.63046 36667 ft 519 kts 146°
2026-04-25 20:38 -7.92917 40.66945 36674 ft 520 kts 145°
2026-04-25 20:38 -7.98938 40.70913 36670 ft 520 kts 145°
2026-04-25 20:39 -8.05024 40.74853 36673 ft 520 kts 145°
2026-04-25 20:39 -8.10086 40.78166 36671 ft 521 kts 145°
2026-04-25 20:40 -8.17207 40.82805 36673 ft 522 kts 145°
2026-04-25 20:40 -8.23388 40.86658 36663 ft 522 kts 146°
2026-04-25 20:41 -8.29549 40.90542 36661 ft 521 kts 147°
2026-04-25 20:41 -8.35752 40.94349 36661 ft 522 kts 147°
2026-04-25 20:42 -8.41920 40.98202 36666 ft 521 kts 147°
2026-04-25 20:42 -8.48108 41.02030 36663 ft 521 kts 147°
2026-04-25 20:43 -8.54243 41.05848 36658 ft 521 kts 147°
2026-04-25 20:43 -8.60427 41.09686 36658 ft 521 kts 147°
2026-04-25 20:44 -8.66602 41.13526 36659 ft 521 kts 147°
2026-04-25 20:44 -8.72789 41.17372 36663 ft 522 kts 147°
2026-04-25 20:45 -8.78983 41.21226 36667 ft 523 kts 147°
2026-04-25 20:45 -8.85180 41.25082 36670 ft 523 kts 147°
2026-04-25 20:46 -8.91380 41.28942 36668 ft 522 kts 147°
2026-04-25 20:46 -8.97516 41.32763 36662 ft 521 kts 147°
2026-04-25 20:47 -9.03693 41.36612 36668 ft 521 kts 147°
2026-04-25 20:47 -9.09873 41.40464 36664 ft 521 kts 147°
2026-04-25 20:48 -9.16064 41.44324 36673 ft 522 kts 147°
2026-04-25 20:48 -9.22246 41.48181 36670 ft 522 kts 147°
2026-04-25 20:49 -9.28417 41.52032 36663 ft 521 kts 147°
2026-04-25 20:49 -9.34586 41.55884 36661 ft 521 kts 147°
2026-04-25 20:50 -9.40273 41.59435 36667 ft 522 kts 148°
2026-04-25 20:50 -9.46462 41.63303 36668 ft 523 kts 148°
2026-04-25 20:51 -9.52659 41.67177 36672 ft 523 kts 148°
2026-04-25 20:51 -9.58805 41.71020 36673 ft 523 kts 148°
2026-04-25 20:52 -9.63986 41.74262 36671 ft 524 kts 148°
2026-04-25 20:52 -9.71195 41.78774 36680 ft 524 kts 148°
2026-04-25 20:53 -9.77401 41.82660 36676 ft 524 kts 148°
2026-04-25 20:53 -9.83602 41.86544 36673 ft 523 kts 148°
2026-04-25 20:54 -9.89817 41.90440 36671 ft 525 kts 148°
2026-04-25 20:54 -9.96025 41.94333 36674 ft 524 kts 148°
2026-04-25 20:55 -10.02228 41.98224 36672 ft 524 kts 148°
2026-04-25 20:55 -10.08406 42.02102 36673 ft 524 kts 148°
2026-04-25 20:56 -10.14610 42.05997 36673 ft 526 kts 148°
2026-04-25 20:56 -10.20836 42.09908 36675 ft 525 kts 148°
2026-04-25 20:57 -10.27047 42.13812 36677 ft 525 kts 148°
2026-04-25 20:57 -10.33250 42.17712 36674 ft 525 kts 148°
2026-04-25 20:58 -10.39468 42.21623 36675 ft 526 kts 148°
2026-04-25 20:58 -10.45681 42.25534 36672 ft 525 kts 148°
2026-04-25 20:59 -10.51890 42.29443 36670 ft 525 kts 148°
2026-04-25 20:59 -10.58109 42.33361 36671 ft 526 kts 148°
2026-04-25 21:00 -10.62230 42.35959 36673 ft 527 kts 148°
2026-04-25 21:01 -10.73635 42.43153 36672 ft 526 kts 147°
2026-04-25 21:01 -10.79511 42.47589 36667 ft 527 kts 142°
2026-04-25 21:02 -10.85320 42.52137 36674 ft 527 kts 143°
2026-04-25 21:02 -10.91159 42.56637 36673 ft 526 kts 142°
2026-04-25 21:03 -10.96962 42.61166 36675 ft 526 kts 143°
2026-04-25 21:03 -11.02797 42.65684 36672 ft 527 kts 143°
2026-04-25 21:04 -11.08622 42.70222 36671 ft 527 kts 143°
2026-04-25 21:04 -11.14428 42.74732 36668 ft 525 kts 143°
2026-04-25 21:05 -11.20197 42.79224 36666 ft 524 kts 143°
2026-04-25 21:05 -11.25993 42.83735 36664 ft 524 kts 143°
2026-04-25 21:06 -11.31793 42.88253 36666 ft 524 kts 143°
2026-04-25 21:06 -11.37594 42.92774 36667 ft 524 kts 143°
2026-04-25 21:07 -11.43352 42.97264 36665 ft 524 kts 143°
2026-04-25 21:07 -11.49181 43.01812 36671 ft 524 kts 143°
2026-04-25 21:08 -11.54958 43.06321 36672 ft 527 kts 143°
2026-04-25 21:08 -11.60753 43.10846 36669 ft 521 kts 143°
2026-04-25 21:09 -11.69411 43.17613 36669 ft 522 kts 143°
2026-04-25 21:09 -11.75191 43.22133 36670 ft 522 kts 143°
2026-04-25 21:10 -11.80978 43.26662 36679 ft 523 kts 143°
2026-04-25 21:10 -11.86727 43.31163 36676 ft 522 kts 143°
2026-04-25 21:11 -11.92444 43.35641 36676 ft 521 kts 143°
2026-04-25 21:11 -11.98197 43.40150 36670 ft 521 kts 143°
2026-04-25 21:12 -12.03941 43.44654 36674 ft 520 kts 142°
2026-04-25 21:12 -12.07768 43.47657 36670 ft 518 kts 142°
2026-04-25 21:13 -12.15383 43.53634 36671 ft 518 kts 142°
2026-04-25 21:13 -12.21100 43.58125 36671 ft 519 kts 142°
2026-04-25 21:14 -12.25865 43.61870 36668 ft 520 kts 142°
2026-04-25 21:14 -12.31583 43.66366 36670 ft 518 kts 142°
2026-04-25 21:15 -12.37292 43.70857 36666 ft 517 kts 142°
2026-04-25 21:15 -12.42985 43.75339 36665 ft 517 kts 142°
2026-04-25 21:16 -12.48657 43.79806 36668 ft 517 kts 142°
2026-04-25 21:16 -12.54345 43.84289 36667 ft 517 kts 142°
2026-04-25 21:17 -12.60049 43.88786 36666 ft 517 kts 142°
2026-04-25 21:17 -12.65758 43.93291 36665 ft 518 kts 142°
2026-04-25 21:18 -12.71467 43.97798 36665 ft 518 kts 142°
2026-04-25 21:18 -12.77166 44.02300 36663 ft 516 kts 142°
2026-04-25 21:19 -12.82866 44.06805 36644 ft 517 kts 142°
2026-04-25 21:19 -12.93517 44.15071 34221 ft 508 kts 142°
2026-04-25 21:19 -13.48537 44.58491 34351 ft 503 kts 143°
2026-04-25 21:20 -13.51314 44.60735 34064 ft 514 kts 139°
2026-04-25 21:20 -13.53104 44.62333 34047 ft 519 kts 138°
2026-04-25 21:20 -13.76686 44.82496 38758 ft 520 kts 141°
2026-04-25 21:20 -14.36161 45.27498 38926 ft 516 kts 144°
2026-04-25 21:21 -15.07205 45.84488 36356 ft 513 kts 139°
2026-04-25 21:21 -15.09798 45.87044 36256 ft 517 kts 134°
2026-04-25 21:21 -15.12261 45.89773 36364 ft 520 kts 133°
2026-04-25 21:21 -15.14721 45.92463 36491 ft 523 kts 135°
2026-04-25 21:22 -15.17386 45.95016 36637 ft 524 kts 142°
2026-04-25 21:22 -15.20285 45.97316 36786 ft 525 kts 145°
2026-04-25 21:22 -15.23284 45.99490 36936 ft 527 kts 146°
2026-04-25 21:22 -15.26248 46.01711 36947 ft 526 kts 142°
2026-04-25 21:23 -15.31883 46.06541 36960 ft 525 kts 142°
2026-04-25 21:23 -15.37690 46.11132 36959 ft 524 kts 143°
2026-04-25 21:24 -15.43393 46.15845 36963 ft 525 kts 142°
2026-04-25 21:24 -15.49142 46.20501 36974 ft 525 kts 143°
2026-04-25 21:25 -15.54889 46.25198 36985 ft 526 kts 142°
2026-04-25 21:25 -15.60608 46.29867 36991 ft 526 kts 143°
2026-04-25 21:26 -15.66658 46.34083 37021 ft 524 kts 159°
2026-04-25 21:26 -15.73586 46.36329 37007 ft 521 kts 167°
2026-04-25 21:27 -15.80571 46.38305 36993 ft 520 kts 166°
2026-04-25 21:27 -15.87563 46.40332 37003 ft 520 kts 167°
2026-04-25 21:28 -15.94554 46.42328 36978 ft 520 kts 166°
2026-04-25 21:28 -16.01524 46.44341 36975 ft 520 kts 167°
2026-04-25 21:29 -16.08503 46.46344 36972 ft 520 kts 166°
2026-04-25 21:29 -16.15477 46.48355 36973 ft 520 kts 166°
2026-04-25 21:30 -16.22456 46.50365 36975 ft 521 kts 167°
2026-04-25 21:30 -16.28252 46.52037 36738 ft 519 kts 167°
2026-04-25 21:31 -16.32844 46.53363 36247 ft 514 kts 167°
2026-04-25 21:31 -16.36276 46.54353 35834 ft 510 kts 167°
2026-04-25 21:31 -16.57158 46.58292 31193 ft 0 kts 169°
2026-04-25 21:31 -17.02946 46.71553 24442 ft 19345 kts 161°
2026-04-25 21:32 -17.09504 46.74090 24719 ft 514 kts 156°
2026-04-25 21:32 -17.12668 46.75641 24899 ft 492 kts 155°
2026-04-25 21:32 -17.15708 46.77134 25026 ft 472 kts 156°
2026-04-25 21:32 -17.18685 46.78431 25126 ft 454 kts 162°
2026-04-25 21:33 -17.21649 46.79346 25197 ft 436 kts 167°
2026-04-25 21:33 -17.24553 46.80038 25257 ft 420 kts 169°
2026-04-25 21:33 -17.27366 46.80707 25307 ft 412 kts 166°
2026-04-25 21:33 -17.30149 46.81548 25420 ft 419 kts 163°
2026-04-25 21:34 -17.32931 46.82440 25517 ft 418 kts 165°
2026-04-25 21:34 -17.35740 46.83258 25613 ft 419 kts 166°
2026-04-25 21:34 -17.38555 46.84038 25735 ft 420 kts 166°
2026-04-25 21:34 -17.41342 46.84847 25850 ft 421 kts 165°
2026-04-25 21:35 -17.44162 46.85691 25953 ft 422 kts 165°
2026-04-25 21:35 -17.46994 46.86525 26084 ft 422 kts 166°
2026-04-25 21:35 -17.49829 46.87344 26190 ft 423 kts 166°
2026-04-25 21:35 -17.52678 46.88173 26316 ft 424 kts 165°
2026-04-25 21:36 -17.55526 46.89010 26448 ft 425 kts 165°
2026-04-25 21:36 -17.58381 46.89849 26560 ft 427 kts 166°
2026-04-25 21:36 -17.61251 46.90687 26676 ft 429 kts 166°
2026-04-25 21:36 -17.64129 46.91528 26669 ft 428 kts 166°
2026-04-25 21:37 -17.66947 46.92354 26665 ft 427 kts 166°
2026-04-25 21:37 -17.68879 46.92921 26665 ft 427 kts 166°
2026-04-25 21:37 -17.72666 46.94031 26675 ft 427 kts 166°
2026-04-25 21:37 -17.75526 46.94869 26676 ft 427 kts 166°
2026-04-25 21:38 -17.78386 46.95708 26680 ft 427 kts 166°
2026-04-25 21:38 -17.81252 46.96549 26681 ft 427 kts 166°
2026-04-25 21:38 -17.84110 46.97389 26707 ft 427 kts 166°
2026-04-25 21:38 -17.86970 46.98228 26703 ft 426 kts 166°
2026-04-25 21:39 -17.89821 46.99065 26706 ft 426 kts 166°
2026-04-25 21:39 -17.92681 46.99905 26557 ft 425 kts 166°
2026-04-25 21:39 -17.95515 47.00739 26221 ft 423 kts 166°
2026-04-25 21:39 -17.98344 47.01572 25845 ft 420 kts 166°
2026-04-25 21:40 -18.01158 47.02400 25454 ft 418 kts 166°
2026-04-25 21:40 -18.03942 47.03219 25083 ft 415 kts 166°
2026-04-25 21:40 -18.06715 47.04036 24733 ft 412 kts 166°
2026-04-25 21:40 -18.09469 47.04847 24373 ft 409 kts 166°
2026-04-25 21:41 -18.12201 47.05652 24046 ft 407 kts 166°
2026-04-25 21:41 -18.14885 47.06443 23600 ft 403 kts 166°
2026-04-25 21:41 -18.17604 47.07245 23026 ft 399 kts 166°
2026-04-25 21:41 -18.20260 47.08027 22476 ft 395 kts 165°
2026-04-25 21:42 -18.22862 47.08795 21943 ft 391 kts 165°
2026-04-25 21:42 -18.25472 47.09566 21408 ft 388 kts 165°
2026-04-25 21:42 -18.28061 47.10330 20903 ft 384 kts 165°
2026-04-25 21:42 -18.30623 47.11087 20373 ft 381 kts 165°
2026-04-25 21:43 -18.33193 47.11684 19885 ft 376 kts 168°
2026-04-25 21:43 -18.35734 47.12332 19384 ft 373 kts 165°
2026-04-25 21:43 -18.38230 47.13047 18887 ft 371 kts 166°
2026-04-25 21:43 -18.40728 47.13674 18295 ft 366 kts 167°
2026-04-25 21:44 -18.43176 47.14241 17407 ft 362 kts 167°
2026-04-25 21:44 -18.45612 47.14833 16575 ft 357 kts 166°
2026-04-25 21:44 -18.50367 47.16037 15006 ft 346 kts 167°
2026-04-25 21:45 -18.52697 47.16610 14267 ft 342 kts 167°
2026-04-25 21:45 -18.54175 47.16974 13776 ft 339 kts 167°
2026-04-25 21:45 -18.57181 47.17721 12705 ft 333 kts 166°
2026-04-25 21:45 -18.59424 47.18280 11935 ft 328 kts 166°
2026-04-25 21:46 -18.61630 47.18829 11184 ft 324 kts 167°
2026-04-25 21:46 -18.63802 47.19368 10585 ft 315 kts 167°
2026-04-25 21:46 -18.65894 47.19888 10167 ft 302 kts 167°
2026-04-25 21:46 -18.67899 47.20387 9720 ft 291 kts 167°
2026-04-25 21:47 -18.69843 47.20870 8952 ft 283 kts 166°
2026-04-25 21:47 -18.71731 47.21340 8086 ft 276 kts 166°
2026-04-25 21:47 -18.73583 47.21800 7343 ft 268 kts 165°
2026-04-25 21:47 -18.75181 47.22593 7002 ft 245 kts 135°
2026-04-25 21:48 -18.76048 47.24030 6971 ft 226 kts 106°
2026-04-25 21:48 -18.76373 47.25591 6954 ft 218 kts 101°
2026-04-25 21:48 -18.76617 47.27234 7006 ft 226 kts 101°
2026-04-25 21:48 -18.76853 47.28833 7019 ft 221 kts 101°
2026-04-25 21:49 -18.77090 47.30428 7022 ft 218 kts 101°
2026-04-25 21:49 -18.77325 47.32010 6925 ft 212 kts 101°
2026-04-25 21:49 -18.77542 47.33483 6635 ft 197 kts 101°
2026-04-25 21:49 -18.77752 47.34902 6360 ft 194 kts 101°
2026-04-25 21:50 -18.77966 47.36283 6135 ft 183 kts 100°
2026-04-25 21:50 -18.78159 47.37585 5909 ft 178 kts 100°
2026-04-25 21:50 -18.78351 47.38872 5662 ft 177 kts 101°
2026-04-25 21:50 -18.78481 47.39738 5530 ft 180 kts 101°
2026-04-25 21:51 -18.78737 47.41462 5204 ft 181 kts 101°
2026-04-25 21:51 -18.78937 47.42775 4951 ft 182 kts 100°
2026-04-25 21:51 -18.79115 47.44083 4663 ft 179 kts 99°
2026-04-25 21:51 -18.79320 47.45378 4424 ft 175 kts 101°
2026-04-25 21:52 -18.79498 47.46616 4214 ft 163 kts 99°
2026-04-25 21:52 -18.79642 47.47549 4186 ft 94 kts 99°
2026-04-25 21:52 -18.79719 47.48047 4171 ft 42 kts 107°
2026-04-25 21:52 -18.79800 47.48115 4170 ft 9 kts 184°
2026-04-25 21:53 -18.79844 47.48109 4169 ft 1 kts 201°
2026-04-25 21:53 -18.79848 47.48107 4170 ft 1 kts 206°
2026-04-25 21:53 -18.79860 47.48098 4170 ft 4 kts 218°
2026-04-25 21:53 -18.79878 47.48070 4170 ft 7 kts 242°
2026-04-25 21:54 -18.79885 47.48032 4171 ft 4 kts 270°
2026-04-25 21:54 -18.79883 47.47989 4172 ft 11 kts 272°